DW8769 Weather Reports


Display with metric or nautical units.
time (UTC)temp
F
wind
direction
speed
MPH
gust
MPH
rain 1hr
in
rain 24hr
in
rain mn
in
humidity
%
barometer
mb
20260507114008 65 52 9.0 14.0 0.00 0.57 0.57 79 1010.8
20260507113908 65 61 9.0 14.0 0.00 0.57 0.57 79 1010.7
20260507113806 65 57 9.0 14.0 0.00 0.57 0.57 79 1010.6
20260507113707 65 56 8.0 14.0 0.00 0.57 0.57 79 1010.7
20260507113608 65 55 8.0 14.0 0.00 0.57 0.57 80 1010.7
20260507113406 65 60 8.0 14.0 0.00 0.57 0.57 80 1010.7
20260507113306 65 42 8.0 14.0 0.00 0.57 0.57 80 1010.8
20260507113205 65 59 8.0 14.0 0.00 0.57 0.57 80 1010.8
20260507113108 65 28 8.0 14.0 0.00 0.57 0.57 80 1010.7
20260507112907 65 50 8.0 15.0 0.01 0.57 0.57 81 1010.8
20260507112809 65 111 8.0 15.0 0.01 0.57 0.57 81 1010.9
20260507112707 65 68 8.0 15.0 0.02 0.57 0.57 81 1010.9
20260507112606 65 51 8.0 15.0 0.02 0.57 0.57 81 1010.8
20260507112508 65 52 8.0 15.0 0.03 0.57 0.57 81 1010.9
20260507112407 65 70 8.0 15.0 0.05 0.57 0.57 81 1011.0
20260507112307 65 68 8.0 15.0 0.07 0.57 0.57 82 1011.0
20260507112205 65 85 9.0 15.0 0.10 0.57 0.57 82 1011.0
20260507112009 65 44 9.0 14.0 0.20 0.57 0.57 82 1011.2
20260507111907 65 43 9.0 14.0 0.22 0.57 0.57 82 1011.2
20260507111805 65 48 9.0 14.0 0.30 0.57 0.57 82 1011.2
20260507111707 64 83 9.0 14.0 0.39 0.57 0.57 82 1011.2
20260507111607 64 68 9.0 14.0 0.39 0.57 0.57 82 1011.2
20260507111509 64 35 9.0 14.0 0.43 0.57 0.57 82 1011.2
20260507111407 64 87 9.0 14.0 0.45 0.57 0.57 83 1011.1
20260507111206 64 66 9.0 14.0 0.49 0.57 0.57 83 1011.2
20260507111009 64 83 9.0 13.0 0.52 0.57 0.57 83 1011.3
20260507110907 64 27 9.0 13.0 0.54 0.57 0.57 83 1011.3
20260507110807 64 62 9.0 13.0 0.54 0.57 0.57 83 1011.3
20260507110708 64 61 9.0 13.0 0.55 0.57 0.57 83 1011.2
20260507110608 64 51 9.0 13.0 0.55 0.57 0.57 83 1011.2
20260507110306 64 46 9.0 13.0 0.57 0.57 0.57 83 1011.3
20260507110107 64 64 9.0 13.0 0.57 0.57 0.57 84 1011.3
20260507110011 64 58 9.0 13.0 0.57 0.57 0.57 84 1011.2
20260507105907 64 68 9.0 13.0 0.57 0.57 0.57 84 1011.3
20260507105806 64 50 9.0 13.0 0.57 0.57 0.57 84 1011.3
20260507105706 64 68 9.0 13.0 0.57 0.57 0.57 84 1011.3
20260507105610 64 65 9.0 13.0 0.57 0.57 0.57 84 1011.2
20260507105508 64 60 8.0 12.0 0.57 0.57 0.57 84 1011.3
20260507105406 64 62 8.0 12.0 0.57 0.57 0.57 84 1011.3
20260507105307 64 75 7.0 12.0 0.57 0.57 0.57 84 1011.2
20260507105205 64 58 7.0 12.0 0.57 0.57 0.57 85 1011.2
20260507105105 64 44 6.0 12.0 0.57 0.57 0.57 85 1011.2
20260507104808 64 62 4.0 12.0 0.57 0.57 0.57 85 1011.1
20260507104707 64 63 3.0 12.0 0.57 0.57 0.57 86 1011.1
20260507104607 64 66 3.0 11.0 0.57 0.57 0.57 86 1011.1
20260507104507 64 39 3.0 11.0 0.57 0.57 0.57 86 1011.1
20260507104407 64 54 2.0 11.0 0.57 0.57 0.57 86 1011.2
20260507104307 64 14 2.0 7.0 0.57 0.57 0.57 87 1011.1
20260507104207 64 14 2.0 7.0 0.57 0.57 0.57 87 1011.1
20260507104106 63 21 2.0 6.0 0.57 0.57 0.57 87 1011.1
20260507104012 63 78 2.0 6.0 0.57 0.57 0.57 87 1011.1
20260507103908 63 32 2.0 8.0 0.57 0.57 0.57 87 1011.1
20260507103806 63 7 2.0 8.0 0.57 0.57 0.57 87 1011.2
20260507103706 63 335 2.0 8.0 0.57 0.57 0.57 87 1011.2
20260507103508 63 70 2.0 8.0 0.57 0.57 0.57 86 1011.2
20260507103406 63 60 2.0 8.0 0.57 0.57 0.57 86 1011.1
20260507103205 63 56 3.0 8.0 0.57 0.57 0.57 86 1011.1
20260507103107 62 50 2.0 8.0 0.57 0.57 0.57 86 1011.1
20260507103009 62 53 2.0 6.0 0.57 0.57 0.57 85 1011.1
20260507102907 62 10 2.0 6.0 0.57 0.57 0.57 85 1011.0
20260507102807 62 47 3.0 6.0 0.57 0.57 0.57 85 1011.1
20260507102507 62 287 3.0 8.0 0.54 0.54 0.54 84 1011.1
20260507102406 63 345 3.0 8.0 0.53 0.53 0.53 84 1011.2
20260507102205 63 312 4.0 8.0 0.47 0.47 0.47 84 1011.2
20260507102105 63 290 4.0 8.0 0.43 0.43 0.43 84 1011.2
20260507101707 63 53 6.0 12.0 0.18 0.18 0.18 83 1011.3
20260507101607 64 71 6.0 12.0 0.16 0.16 0.16 83 1011.3
20260507101507 64 58 7.0 12.0 0.14 0.14 0.14 83 1011.2
20260507101406 64 78 7.0 12.0 0.13 0.13 0.13 83 1011.2
20260507101207 64 123 7.0 12.0 0.09 0.09 0.09 82 1011.2
20260507101107 64 73 7.0 12.0 0.08 0.08 0.08 82 1011.2
20260507101010 64 9 6.0 12.0 0.06 0.06 0.06 81 1011.3
20260507100907 64 54 6.0 12.0 0.04 0.04 0.04 81 1011.2
20260507100708 65 64 4.0 12.0 0.02 0.02 0.02 80 1011.1
20260507100606 65 54 4.0 12.0 0.02 0.02 0.02 79 1011.2
20260507100509 65 70 4.0 11.0 0.01 0.01 0.01 79 1011.2
20260507100305 65 41 3.0 9.0 0.00 0.00 0.00 78 1011.2
20260507100207 66 330 4.0 8.0 0.00 0.00 0.00 78 1011.2
20260507100107 66 141 4.0 9.0 0.00 0.00 0.00 78 1011.2
20260507100009 66 48 4.0 9.0 0.00 0.00 0.00 78 1011.3
20260507095906 65 344 4.0 9.0 0.00 0.00 0.00 78 1011.3
20260507095713 65 62 4.0 9.0 0.00 0.00 0.00 77 1011.2
20260507095605 66 44 4.0 9.0 0.00 0.00 0.00 77 1011.4
20260507095508 66 82 4.0 9.0 0.00 0.00 0.00 76 1011.3
20260507095406 66 55 3.0 9.0 0.00 0.00 0.00 76 1011.4
20260507095207 66 61 3.0 7.0 0.00 0.00 0.00 76 1011.4
20260507095107 66 80 3.0 7.0 0.00 0.00 0.00 76 1011.4
20260507094906 66 48 4.0 7.0 0.00 0.00 0.00 76 1011.4
20260507094808 66 91 4.0 7.0 0.00 0.00 0.00 76 1011.3
20260507094705 66 87 4.0 7.0 0.00 0.00 0.00 76 1011.4
20260507094509 66 36 4.0 8.0 0.00 0.00 0.00 76 1011.3
20260507094405 66 50 5.0 8.0 0.00 0.00 0.00 76 1011.4
20260507094306 66 71 5.0 8.0 0.00 0.00 0.00 76 1011.4
20260507094206 66 63 5.0 8.0 0.00 0.00 0.00 76 1011.4
20260507094106 66 83 5.0 8.0 0.00 0.00 0.00 75 1011.4
20260507094010 66 77 5.0 8.0 0.00 0.00 0.00 75 1011.4
20260507093906 66 77 4.0 8.0 0.00 0.00 0.00 75 1011.4
20260507093806 66 54 4.0 8.0 0.00 0.00 0.00 74 1011.4
20260507093705 66 60 4.0 8.0 0.00 0.00 0.00 74 1011.4
20260507093606 66 54 3.0 8.0 0.00 0.00 0.00 74 1011.3
20260507093509 66 53 3.0 8.0 0.00 0.00 0.00 74 1011.4
20260507093407 66 60 3.0 7.0 0.00 0.00 0.00 73 1011.3
20260507093208 66 46 3.0 7.0 0.00 0.00 0.00 73 1011.3
20260507093107 66 70 2.0 7.0 0.00 0.00 0.00 73 1011.4
20260507092909 66 29 2.0 8.0 0.00 0.00 0.00 73 1011.4
20260507092808 66 76 2.0 8.0 0.00 0.00 0.00 73 1011.3
20260507092607 66 94 2.0 8.0 0.00 0.00 0.00 73 1011.4
20260507092507 66 94 2.0 8.0 0.00 0.00 0.00 73 1011.4
20260507092407 66 212 2.0 8.0 0.00 0.00 0.00 73 1011.4
20260507092310 66 79 2.0 8.0 0.00 0.00 0.00 72 1011.4
20260507092212 66 67 1.0 8.0 0.00 0.00 0.00 72 1011.4
20260507092106 66 51 1.0 7.0 0.00 0.00 0.00 73 1011.5
20260507091907 66 28 1.0 4.0 0.00 0.00 0.00 73 1011.4
20260507091807 66 17 1.0 4.0 0.00 0.00 0.00 73 1011.4
20260507091607 66 17 1.0 4.0 0.00 0.00 0.00 73 1011.5
20260507091508 66 22 2.0 5.0 0.00 0.00 0.00 73 1011.5
20260507091406 66 92 1.0 5.0 0.00 0.00 0.00 73 1011.5
20260507091306 66 36 2.0 5.0 0.00 0.00 0.00 73 1011.4
20260507091206 65 40 2.0 5.0 0.00 0.00 0.00 73 1011.4
20260507090907 65 40 2.0 6.0 0.00 0.00 0.00 73 1011.3
20260507090807 65 46 2.0 6.0 0.00 0.00 0.00 73 1011.4
20260507090707 65 31 2.0 6.0 0.00 0.00 0.00 73 1011.4
20260507090508 65 335 2.0 6.0 0.00 0.00 0.00 73 1011.4
20260507090406 65 303 3.0 6.0 0.00 0.00 0.00 73 1011.3
20260507090206 65 60 2.0 8.0 0.00 0.00 0.00 73 1011.2
20260507090108 65 48 2.0 8.0 0.00 0.00 0.00 73 1011.3
20260507085906 65 347 3.0 8.0 0.00 0.00 0.00 73 1011.2
20260507085707 65 276 3.0 8.0 0.00 0.00 0.00 73 1011.3
20260507085609 65 295 3.0 10.0 0.00 0.00 0.00 73 1011.4
20260507085509 65 330 3.0 10.0 0.00 0.00 0.00 73 1011.3
20260507085406 64 16 3.0 10.0 0.00 0.00 0.00 73 1011.3
20260507085307 64 65 3.0 10.0 0.00 0.00 0.00 73 1011.3
20260507085211 64 53 3.0 10.0 0.00 0.00 0.00 73 1011.3
20260507085105 64 4 3.0 10.0 0.00 0.00 0.00 73 1011.2
20260507085009 64 341 3.0 10.0 0.00 0.00 0.00 72 1011.2
20260507084905 64 249 2.0 10.0 0.00 0.00 0.00 72 1011.3
20260507084806 64 288 2.0 10.0 0.00 0.00 0.00 72 1011.4
20260507084707 64 302 2.0 6.0 0.00 0.00 0.00 72 1011.4
20260507084605 64 317 3.0 6.0 0.00 0.00 0.00 72 1011.3
20260507084508 64 41 3.0 6.0 0.00 0.00 0.00 72 1011.3
20260507084407 64 266 3.0 8.0 0.00 0.00 0.00 72 1011.4
20260507084106 63 291 3.0 9.0 0.00 0.00 0.00 72 1011.3
20260507084009 63 348 4.0 9.0 0.00 0.00 0.00 72 1011.2
20260507083908 63 295 4.0 9.0 0.00 0.00 0.00 72 1011.2
20260507083808 63 296 4.0 10.0 0.00 0.00 0.00 72 1011.2
20260507083707 63 285 4.0 10.0 0.00 0.00 0.00 72 1011.2
20260507083608 63 278 4.0 10.0 0.00 0.00 0.00 72 1011.2
20260507083508 63 297 4.0 10.0 0.00 0.00 0.00 72 1011.2
20260507083407 63 261 4.0 10.0 0.00 0.00 0.00 72 1011.2
20260507083305 63 335 4.0 10.0 0.00 0.00 0.00 72 1011.2
20260507083206 63 247 4.0 10.0 0.00 0.00 0.00 72 1011.2
20260507083106 63 325 4.0 10.0 0.00 0.00 0.00 72 1011.2
20260507083007 63 220 4.0 10.0 0.00 0.00 0.00 72 1011.3
20260507082905 63 317 3.0 9.0 0.00 0.00 0.00 71 1011.2
20260507082806 63 314 3.0 9.0 0.00 0.00 0.00 71 1011.2
20260507082706 63 321 4.0 9.0 0.00 0.00 0.00 71 1011.3
20260507082606 63 281 4.0 10.0 0.00 0.00 0.00 71 1011.2
20260507082508 63 234 4.0 10.0 0.00 0.00 0.00 71 1011.2
20260507082406 63 316 4.0 10.0 0.00 0.00 0.00 71 1011.3
20260507082306 63 187 4.0 10.0 0.00 0.00 0.00 71 1011.3
20260507082207 63 238 4.0 10.0 0.00 0.00 0.00 71 1011.3
20260507082105 63 316 4.0 10.0 0.00 0.00 0.00 71 1011.3
20260507082007 63 312 4.0 10.0 0.00 0.00 0.00 71 1011.2
20260507081809 63 276 5.0 10.0 0.00 0.00 0.00 71 1011.2
20260507081607 63 293 4.0 11.0 0.00 0.00 0.00 71 1011.2
20260507081507 62 258 4.0 11.0 0.00 0.00 0.00 71 1011.2
20260507081405 62 339 4.0 11.0 0.00 0.00 0.00 71 1011.2
20260507081306 63 357 4.0 11.0 0.00 0.00 0.00 71 1011.2
20260507081206 63 229 4.0 11.0 0.00 0.00 0.00 71 1011.2
20260507081105 62 269 4.0 11.0 0.00 0.00 0.00 71 1011.2
20260507081007 62 256 4.0 11.0 0.00 0.00 0.00 71 1011.2
20260507080907 62 277 4.0 11.0 0.00 0.00 0.00 71 1011.3
20260507080805 62 264 4.0 11.0 0.00 0.00 0.00 71 1011.2
20260507080707 62 358 4.0 11.0 0.00 0.00 0.00 71 1011.3
20260507080605 62 229 5.0 11.0 0.00 0.00 0.00 71 1011.3
20260507080507 62 293 5.0 11.0 0.00 0.00 0.00 71 1011.2
20260507080406 62 267 5.0 11.0 0.00 0.00 0.00 71 1011.3
20260507080308 62 303 5.0 11.0 0.00 0.00 0.00 71 1011.2
20260507080207 62 251 5.0 11.0 0.00 0.00 0.00 71 1011.2
20260507080107 62 320 5.0 11.0 0.00 0.00 0.00 71 1011.3
20260507080014 62 7 4.0 11.0 0.00 0.00 0.00 71 1011.2
20260507075905 62 308 4.0 10.0 0.00 0.00 0.00 71 1011.1
20260507075805 62 335 4.0 10.0 0.00 0.00 0.00 71 1011.2
20260507075705 62 273 3.0 9.0 0.00 0.00 0.00 71 1011.2
20260507075606 62 289 3.0 9.0 0.00 0.00 0.00 71 1011.2
20260507075508 62 293 3.0 9.0 0.00 0.00 0.00 71 1011.2
20260507075407 62 303 3.0 9.0 0.00 0.00 0.00 71 1011.2
20260507075307 62 296 3.0 10.0 0.00 0.00 0.00 71 1011.2
20260507075205 62 229 3.0 10.0 0.00 0.00 0.00 71 1011.3
20260507075106 62 215 3.0 10.0 0.00 0.00 0.00 71 1011.3
20260507075009 62 321 3.0 10.0 0.00 0.00 0.00 71 1011.3
20260507074906 62 310 3.0 10.0 0.00 0.00 0.00 71 1011.3
20260507074707 62 335 3.0 10.0 0.00 0.00 0.00 71 1011.4
20260507074607 62 258 3.0 10.0 0.00 0.00 0.00 70 1011.4
20260507074405 62 330 3.0 9.0 0.00 0.00 0.00 71 1011.3
20260507074306 62 210 3.0 6.0 0.00 0.00 0.00 71 1011.3
20260507074207 62 186 3.0 6.0 0.00 0.00 0.00 71 1011.3
20260507074106 62 320 3.0 5.0 0.00 0.00 0.00 71 1011.3
20260507074009 62 262 3.0 6.0 0.00 0.00 0.00 71 1011.3
20260507073906 62 255 3.0 8.0 0.00 0.00 0.00 71 1011.3
20260507073807 62 297 4.0 10.0 0.00 0.00 0.00 71 1011.4
20260507073706 62 299 3.0 10.0 0.00 0.00 0.00 71 1011.3
20260507073607 62 298 3.0 10.0 0.00 0.00 0.00 71 1011.3
20260507073509 62 238 3.0 10.0 0.00 0.00 0.00 71 1011.3
20260507073407 62 238 3.0 10.0 0.00 0.00 0.00 71 1011.3
20260507073306 62 201 3.0 10.0 0.00 0.00 0.00 71 1011.3
20260507073107 62 330 3.0 10.0 0.00 0.00 0.00 72 1011.2
20260507073007 62 325 3.0 10.0 0.00 0.00 0.00 72 1011.3
20260507072907 62 306 3.0 10.0 0.00 0.00 0.00 72 1011.3
20260507072806 62 264 2.0 6.0 0.00 0.00 0.00 73 1011.2
20260507072706 62 325 2.0 6.0 0.00 0.00 0.00 73 1011.3
20260507072606 62 247 2.0 6.0 0.00 0.00 0.00 73 1011.2
20260507072508 62 318 2.0 6.0 0.00 0.00 0.00 73 1011.2
20260507072405 62 262 2.0 6.0 0.00 0.00 0.00 73 1011.2
20260507072308 61 247 2.0 6.0 0.00 0.00 0.00 73 1011.2
20260507072206 61 228 2.0 6.0 0.00 0.00 0.00 74 1011.2
20260507072107 61 358 2.0 6.0 0.00 0.00 0.00 74 1011.2
20260507072007 61 216 2.0 6.0 0.00 0.00 0.00 74 1011.2
20260507071907 61 348 2.0 6.0 0.00 0.00 0.00 74 1011.2
20260507071808 61 245 2.0 6.0 0.00 0.00 0.00 74 1011.2
20260507071708 61 285 2.0 6.0 0.00 0.00 0.00 74 1011.2
20260507071509 61 302 2.0 6.0 0.00 0.00 0.00 75 1011.2
20260507071405 61 264 2.0 5.0 0.00 0.00 0.00 75 1011.2
20260507071306 61 345 2.0 5.0 0.00 0.00 0.00 75 1011.2
20260507071106 60 320 2.0 5.0 0.00 0.00 0.00 75 1011.2
20260507071008 60 321 2.0 5.0 0.00 0.00 0.00 75 1011.1
20260507070906 60 281 2.0 5.0 0.00 0.00 0.00 75 1011.1
20260507070805 60 210 2.0 4.0 0.00 0.00 0.00 75 1011.2
20260507070705 60 231 2.0 4.0 0.00 0.00 0.00 75 1011.1
20260507070607 60 260 2.0 4.0 0.00 0.00 0.00 75 1011.1
20260507070507 60 236 2.0 4.0 0.00 0.00 0.00 75 1011.1
20260507070405 60 231 2.0 4.0 0.00 0.00 0.00 75 1011.2
20260507070305 60 210 2.0 5.0 0.00 0.00 0.00 75 1011.1
20260507070206 60 261 2.0 5.0 0.00 0.00 0.00 76 1011.1
20260507070107 60 286 3.0 8.0 0.00 0.00 0.00 76 1011.1
20260507070012 60 222 3.0 8.0 0.00 0.00 0.00 76 1011.1
20260507065905 60 219 3.0 8.0 0.00 0.00 0.00 76 1011.1
20260507065704 60 282 3.0 8.0 0.00 0.00 0.00 76 1011.1
20260507065606 60 235 3.0 8.0 0.00 0.00 0.00 76 1011.2
20260507065506 60 343 3.0 8.0 0.00 0.00 0.00 76 1011.2
20260507065404 60 352 3.0 8.0 0.00 0.00 0.00 76 1011.2
20260507065306 60 311 3.0 8.0 0.00 0.00 0.00 76 1011.1
20260507065205 60 330 3.0 8.0 0.00 0.00 0.00 76 1011.2
20260507065106 60 309 3.0 6.0 0.00 0.00 0.00 76 1011.1
20260507065007 60 265 3.0 6.0 0.00 0.00 0.00 76 1011.1
20260507064905 60 277 3.0 6.0 0.00 0.00 0.00 76 1011.2
20260507064704 60 318 3.0 6.0 0.00 0.00 0.00 76 1011.1
20260507064604 60 346 3.0 6.0 0.00 0.00 0.00 76 1011.1
20260507064507 60 259 3.0 6.0 0.00 0.00 0.00 76 1011.1
20260507064406 60 345 3.0 6.0 0.00 0.00 0.00 76 1011.1
20260507064304 60 266 3.0 6.0 0.00 0.00 0.00 75 1011.1
20260507064205 60 244 4.0 8.0 0.00 0.00 0.00 75 1011.1
20260507064105 60 237 4.0 8.0 0.00 0.00 0.00 75 1011.1
20260507064007 60 231 4.0 9.0 0.00 0.00 0.00 75 1011.1
20260507063905 60 229 4.0 9.0 0.00 0.00 0.00 75 1011.1
20260507063805 60 236 4.0 9.0 0.00 0.00 0.00 75 1011.1
20260507063704 60 317 4.0 9.0 0.00 0.00 0.00 75 1011.1
20260507063604 60 240 5.0 9.0 0.00 0.00 0.00 75 1011.1
20260507063506 60 252 5.0 9.0 0.00 0.00 0.00 75 1011.1
20260507063405 60 254 5.0 9.0 0.00 0.00 0.00 75 1011.1
20260507063306 60 232 5.0 9.0 0.00 0.00 0.00 75 1011.0
20260507063205 60 257 4.0 9.0 0.00 0.00 0.00 75 1010.9
20260507063106 60 231 4.0 9.0 0.00 0.00 0.00 75 1011.0
20260507062707 60 246 3.0 9.0 0.00 0.00 0.00 74 1011.0
20260507062605 60 293 3.0 9.0 0.00 0.00 0.00 73 1011.0
20260507062507 60 259 3.0 9.0 0.00 0.00 0.00 73 1011.0
20260507062404 60 243 2.0 9.0 0.00 0.00 0.00 72 1011.0
20260507062306 61 253 2.0 8.0 0.00 0.00 0.00 72 1011.0
20260507062204 61 207 2.0 6.0 0.00 0.00 0.00 71 1011.0
20260507062105 61 256 2.0 6.0 0.00 0.00 0.00 71 1010.9
20260507062006 61 171 2.0 6.0 0.00 0.00 0.00 71 1010.8
20260507061905 61 206 2.0 7.0 0.00 0.00 0.00 71 1010.8
20260507061805 61 2 1.0 4.0 0.00 0.00 0.00 72 1010.9
20260507061607 61 335 1.0 4.0 0.00 0.00 0.00 72 1010.8
20260507061406 61 330 1.0 4.0 0.00 0.00 0.00 72 1010.8
20260507061305 61 290 1.0 4.0 0.00 0.00 0.00 72 1010.8
20260507061208 61 299 1.0 3.0 0.00 0.00 0.00 73 1010.8
20260507061107 61 325 1.0 3.0 0.00 0.00 0.00 73 1010.7
20260507061008 61 325 1.0 3.0 0.00 0.00 0.00 73 1010.7
20260507060906 61 325 2.0 3.0 0.00 0.00 0.00 73 1010.7
20260507060805 61 325 2.0 4.0 0.00 0.00 0.00 73 1010.7
20260507060705 61 231 2.0 4.0 0.00 0.00 0.00 73 1010.6
20260507060508 61 249 2.0 4.0 0.00 0.00 0.00 73 1010.6
20260507060406 61 249 2.0 4.0 0.00 0.00 0.00 73 1010.6
20260507060304 61 257 2.0 4.0 0.00 0.00 0.00 73 1010.6
20260507060206 61 257 2.0 4.0 0.00 0.00 0.00 73 1010.6
20260507060111 61 261 2.0 4.0 0.00 0.00 0.00 73 1010.6
20260507060010 61 213 2.0 4.0 0.00 0.00 0.00 73 1010.6
20260507055909 61 287 2.0 4.0 0.00 0.00 0.00 73 1010.5
20260507055808 61 67 3.0 4.0 0.00 0.00 0.00 73 1010.5
20260507055705 61 256 3.0 5.0 0.00 0.00 0.00 73 1010.4
20260507055508 61 301 3.0 5.0 0.00 0.00 0.00 73 1010.5
20260507055407 61 260 3.0 5.0 0.00 0.00 0.00 73 1010.5
20260507055306 61 292 3.0 5.0 0.00 0.00 0.00 73 1010.4
20260507055207 61 299 3.0 5.0 0.00 0.00 0.00 73 1010.4
20260507055107 61 212 3.0 5.0 0.00 0.00 0.00 73 1010.4
20260507054908 61 314 2.0 5.0 0.00 0.00 0.00 73 1010.4
20260507054607 61 284 2.0 5.0 0.00 0.00 0.00 74 1010.4
20260507054509 61 298 2.0 5.0 0.00 0.00 0.00 74 1010.3
20260507054407 61 253 2.0 5.0 0.00 0.00 0.00 74 1010.3
20260507054307 61 266 2.0 5.0 0.00 0.00 0.00 74 1010.3
20260507054208 61 8 1.0 5.0 0.00 0.00 0.00 74 1010.3
20260507054108 61 287 1.0 5.0 0.00 0.00 0.00 75 1010.2
20260507054009 60 295 1.0 5.0 0.00 0.00 0.00 75 1010.3
20260507053906 60 256 1.0 3.0 0.00 0.00 0.00 75 1010.3
20260507053708 60 286 1.0 4.0 0.00 0.00 0.00 75 1010.3
20260507053608 60 286 1.0 4.0 0.00 0.00 0.00 76 1010.3
20260507053511 60 286 1.0 4.0 0.00 0.00 0.00 76 1010.3
20260507053406 60 356 1.0 4.0 0.00 0.00 0.00 76 1010.3
20260507053306 60 356 1.0 4.0 0.00 0.00 0.00 76 1010.3
20260507053206 60 356 1.0 4.0 0.00 0.00 0.00 76 1010.2
20260507053012 60 356 1.0 4.0 0.00 0.00 0.00 76 1010.2
20260507052907 60 356 1.0 4.0 0.00 0.00 0.00 76 1010.2
20260507052707 60 347 0.0 3.0 0.00 0.00 0.00 76 1010.3
20260507052607 60 347 0.0 3.0 0.00 0.00 0.00 76 1010.3
20260507052407 59 246 1.0 3.0 0.00 0.00 0.00 77 1010.3
20260507052207 59 246 1.0 3.0 0.00 0.00 0.00 77 1010.4
20260507052106 59 246 1.0 3.0 0.00 0.00 0.00 77 1010.3
20260507052009 59 246 1.0 3.0 0.00 0.00 0.00 77 1010.3
20260507051707 59 246 0.0 3.0 0.00 0.00 0.00 77 1010.3
20260507051507 59 246 0.0 3.0 0.00 0.00 0.00 77 1010.3
20260507051407 59 260 0.0 2.0 0.00 0.00 0.00 77 1010.3
20260507051306 59 260 0.0 2.0 0.00 0.00 0.00 77 1010.3
20260507051207 59 260 0.0 2.0 0.00 0.00 0.00 77 1010.4
20260507051105 59 230 0.0 0.0 0.00 0.00 0.00 77 1010.4
20260507051009 59 230 0.0 0.0 0.00 0.00 0.00 77 1010.3
20260507050908 59 230 0.0 1.0 0.00 0.00 0.00 77 1010.3
20260507050806 59 230 0.0 1.0 0.00 0.00 0.00 77 1010.3
20260507050706 59 230 0.0 2.0 0.00 0.00 0.00 77 1010.3
20260507050608 59 230 0.0 2.0 0.00 0.00 0.00 78 1010.3
20260507050507 59 230 1.0 3.0 0.00 0.00 0.00 78 1010.3
20260507050407 59 230 1.0 4.0 0.00 0.00 0.00 78 1010.3
20260507050306 59 230 1.0 4.0 0.00 0.00 0.00 78 1010.3
20260507050206 59 230 2.0 4.0 0.00 0.00 0.00 78 1010.3
20260507050007 59 230 2.0 4.0 0.00 0.00 0.00 78 1010.3
20260507045906 59 230 2.0 4.0 0.00 0.00 0.00 78 1010.4
20260507045804 58 230 2.0 5.0 0.00 0.00 0.00 78 1010.3
20260507045605 58 230 2.0 5.0 0.00 0.00 0.00 78 1010.4
20260507045505 58 230 2.0 9.0 0.00 0.00 0.00 78 1010.4
20260507045405 58 248 3.0 9.0 0.00 0.00 0.00 79 1010.4
20260507045306 58 251 3.0 9.0 0.00 0.00 0.00 79 1010.4
20260507045204 58 240 3.0 9.0 0.00 0.00 0.00 79 1010.4
20260507045106 58 248 3.0 9.0 0.00 0.00 0.00 79 1010.3
20260507045006 58 276 3.0 9.0 0.00 0.00 0.00 79 1010.3
20260507044704 58 243 3.0 9.0 0.00 0.00 0.00 79 1010.3
20260507044604 58 241 4.0 9.0 0.00 0.00 0.00 79 1010.2
20260507044506 58 205 4.0 7.0 0.00 0.00 0.00 79 1010.2
20260507044404 58 16 4.0 8.0 0.00 0.00 0.00 79 1010.2
20260507044304 58 227 4.0 8.0 0.00 0.00 0.00 79 1010.1
20260507044204 58 2 4.0 8.0 0.00 0.00 0.00 79 1010.2
20260507044107 58 242 4.0 8.0 0.00 0.00 0.00 78 1010.2
20260507044007 58 226 4.0 8.0 0.00 0.00 0.00 79 1010.2
20260507043906 58 231 4.0 8.0 0.00 0.00 0.00 78 1010.3
20260507043806 58 221 4.0 8.0 0.00 0.00 0.00 78 1010.3
20260507043706 59 273 4.0 8.0 0.00 0.00 0.00 78 1010.2
20260507043606 59 226 4.0 8.0 0.00 0.00 0.00 78 1010.3
20260507043407 59 232 3.0 8.0 0.00 0.00 0.00 77 1010.2
20260507043206 59 213 2.0 7.0 0.00 0.00 0.00 76 1010.1
20260507043105 60 164 2.0 7.0 0.00 0.00 0.00 75 1010.2
20260507043006 60 237 2.0 7.0 0.00 0.00 0.00 75 1010.1
20260507042906 60 230 2.0 7.0 0.00 0.00 0.00 75 1010.2
20260507042805 60 230 1.0 7.0 0.00 0.00 0.00 75 1010.1
20260507042704 60 229 1.0 9.0 0.00 0.00 0.00 74 1010.1
20260507042604 60 247 1.0 9.0 0.00 0.00 0.00 74 1010.1
20260507042507 60 247 1.0 9.0 0.00 0.00 0.00 74 1010.1
20260507042405 60 247 1.0 9.0 0.00 0.00 0.00 74 1010.1
20260507042307 60 247 1.0 9.0 0.00 0.00 0.00 74 1010.0
20260507042205 60 247 1.0 9.0 0.00 0.00 0.00 73 1010.0
20260507042104 60 247 1.0 9.0 0.00 0.00 0.00 74 1010.0
20260507042008 60 258 1.0 9.0 0.00 0.00 0.00 74 1010.0
20260507041904 60 265 0.0 9.0 0.00 0.00 0.00 73 1010.0
20260507041805 60 339 0.0 9.0 0.00 0.00 0.00 73 1010.0
20260507041704 60 213 0.0 3.0 0.00 0.00 0.00 73 1009.9
20260507041605 60 335 0.0 3.0 0.00 0.00 0.00 73 1009.9
20260507041506 60 335 0.0 3.0 0.00 0.00 0.00 73 1009.9
20260507041405 60 335 1.0 3.0 0.00 0.00 0.00 73 1009.8
20260507041306 60 335 1.0 3.0 0.00 0.00 0.00 73 1009.9
20260507041204 60 335 1.0 3.0 0.00 0.00 0.00 73 1009.9
20260507041104 60 335 1.0 3.0 0.00 0.00 0.00 73 1009.9
20260507041008 60 335 1.0 3.0 0.00 0.00 0.00 73 1009.9
20260507040905 60 335 1.0 3.0 0.00 0.00 0.00 73 1009.9
20260507040805 60 335 0.0 3.0 0.00 0.00 0.00 73 1010.0
20260507040705 60 335 0.0 3.0 0.00 0.00 0.00 73 1009.9
20260507040507 60 335 1.0 2.0 0.00 0.00 0.00 73 1009.9
20260507040405 60 335 1.0 2.0 0.00 0.00 0.00 73 1009.8
20260507040304 60 335 1.0 3.0 0.00 0.00 0.00 73 1009.8
20260507040104 60 335 1.0 3.0 0.00 0.00 0.00 73 1009.8
20260507040008 60 335 1.0 3.0 0.00 0.00 0.00 73 1009.9
20260507035904 60 335 1.0 3.0 0.00 0.00 0.00 73 1009.9
20260507035804 60 335 1.0 3.0 0.00 0.00 0.00 73 1009.8
20260507035705 60 335 1.0 3.0 0.00 0.00 0.00 73 1009.9
20260507035606 60 335 1.0 3.0 0.00 0.00 0.00 73 1009.9
20260507035506 60 335 1.0 3.0 0.00 0.00 0.00 73 1009.9
20260507035404 60 335 1.0 4.0 0.00 0.00 0.00 73 1009.9
20260507035306 60 335 1.0 4.0 0.00 0.00 0.00 73 1009.9
20260507035205 60 335 1.0 4.0 0.00 0.00 0.00 73 1009.9
20260507035105 60 335 1.0 4.0 0.00 0.00 0.00 74 1009.8
20260507035007 60 335 1.0 4.0 0.00 0.00 0.00 74 1009.8
20260507034905 60 335 1.0 4.0 0.00 0.00 0.00 74 1009.8
20260507034805 60 335 1.0 4.0 0.00 0.00 0.00 74 1009.8
20260507034704 60 335 1.0 4.0 0.00 0.00 0.00 74 1009.9
20260507034605 60 37 1.0 4.0 0.00 0.00 0.00 74 1009.9
20260507034508 60 340 1.0 4.0 0.00 0.00 0.00 74 1009.8
20260507034405 60 340 1.0 4.0 0.00 0.00 0.00 74 1009.9
20260507034206 60 340 1.0 4.0 0.00 0.00 0.00 74 1009.8
20260507034105 60 340 1.0 4.0 0.00 0.00 0.00 74 1009.9
20260507034006 60 64 1.0 4.0 0.00 0.00 0.00 74 1009.9
20260507033905 60 64 1.0 4.0 0.00 0.00 0.00 74 1009.9
20260507033804 60 64 1.0 4.0 0.00 0.00 0.00 74 1009.9
20260507033705 60 351 1.0 4.0 0.00 0.00 0.00 74 1009.9
20260507033604 60 325 1.0 4.0 0.00 0.00 0.00 74 1010.0
20260507033506 60 325 1.0 4.0 0.00 0.00 0.00 74 1010.0
20260507033404 60 325 1.0 4.0 0.00 0.00 0.00 74 1010.1
20260507033306 60 191 1.0 3.0 0.00 0.00 0.00 74 1010.1
20260507033204 60 191 1.0 3.0 0.00 0.00 0.00 74 1010.1
20260507033105 60 191 1.0 3.0 0.00 0.00 0.00 74 1010.1
20260507033007 60 58 1.0 3.0 0.00 0.00 0.00 75 1010.1
20260507032905 60 58 1.0 3.0 0.00 0.00 0.00 74 1010.1
20260507032805 60 58 1.0 3.0 0.00 0.00 0.00 75 1010.2
20260507032705 60 58 1.0 3.0 0.00 0.00 0.00 74 1010.1
20260507032604 60 58 1.0 3.0 0.00 0.00 0.00 75 1010.2
20260507032507 60 22 1.0 3.0 0.00 0.00 0.00 75 1010.2
20260507032405 60 22 1.0 3.0 0.00 0.00 0.00 75 1010.2
20260507032306 60 22 1.0 3.0 0.00 0.00 0.00 75 1010.2
20260507032205 60 279 1.0 3.0 0.00 0.00 0.00 75 1010.1
20260507032010 60 279 0.0 3.0 0.00 0.00 0.00 75 1010.2
20260507031905 60 279 0.0 3.0 0.00 0.00 0.00 75 1010.2
20260507031804 60 279 0.0 3.0 0.00 0.00 0.00 75 1010.1
20260507031705 60 279 0.0 3.0 0.00 0.00 0.00 75 1010.2
20260507031508 60 349 0.0 2.0 0.00 0.00 0.00 75 1010.1
20260507031404 60 349 0.0 2.0 0.00 0.00 0.00 75 1010.2
20260507031304 60 349 0.0 2.0 0.00 0.00 0.00 75 1010.2
20260507031204 60 349 0.0 2.0 0.00 0.00 0.00 75 1010.2
20260507030905 60 349 0.0 1.0 0.00 0.00 0.00 75 1010.3
20260507030804 60 349 0.0 1.0 0.00 0.00 0.00 75 1010.2
20260507030604 60 349 0.0 2.0 0.00 0.00 0.00 75 1010.3
20260507030506 60 349 0.0 2.0 0.00 0.00 0.00 75 1010.3
20260507030405 60 349 0.0 2.0 0.00 0.00 0.00 75 1010.3
20260507030304 60 349 0.0 2.0 0.00 0.00 0.00 75 1010.3
20260507030205 60 349 0.0 2.0 0.00 0.00 0.00 75 1010.3
20260507025906 60 349 0.0 2.0 0.00 0.00 0.00 75 1010.3
20260507025807 60 349 0.0 2.0 0.00 0.00 0.00 75 1010.3
20260507025606 60 13 0.0 2.0 0.00 0.00 0.00 75 1010.3
20260507025507 60 13 0.0 2.0 0.00 0.00 0.00 75 1010.3
20260507025406 60 13 0.0 3.0 0.00 0.00 0.00 75 1010.3
20260507025306 60 352 1.0 3.0 0.00 0.00 0.00 75 1010.3
20260507025206 60 352 1.0 4.0 0.00 0.00 0.00 75 1010.3
20260507025107 60 352 1.0 4.0 0.00 0.00 0.00 75 1010.3
20260507025009 60 352 1.0 4.0 0.00 0.00 0.00 75 1010.2
20260507024906 60 352 1.0 4.0 0.00 0.00 0.00 75 1010.2
20260507024806 60 352 1.0 4.0 0.00 0.00 0.00 75 1010.2
20260507024606 60 227 1.0 4.0 0.00 0.00 0.00 75 1010.3
20260507024506 60 218 1.0 4.0 0.00 0.00 0.00 75 1010.4
20260507024406 60 218 1.0 4.0 0.00 0.00 0.00 75 1010.4
20260507024306 60 268 1.0 4.0 0.00 0.00 0.00 75 1010.4
20260507024205 60 276 1.0 4.0 0.00 0.00 0.00 75 1010.4
20260507024008 60 198 1.0 4.0 0.00 0.00 0.00 75 1010.4
20260507023906 60 198 1.0 4.0 0.00 0.00 0.00 75 1010.4
20260507023805 60 198 1.0 5.0 0.00 0.00 0.00 75 1010.4
20260507023706 60 198 1.0 5.0 0.00 0.00 0.00 75 1010.4
20260507023607 60 198 1.0 5.0 0.00 0.00 0.00 75 1010.4
20260507023306 60 301 1.0 5.0 0.00 0.00 0.00 75 1010.4
20260507023107 60 212 1.0 5.0 0.00 0.00 0.00 74 1010.4
20260507023008 60 242 1.0 6.0 0.00 0.00 0.00 74 1010.4
20260507022905 60 218 1.0 5.0 0.00 0.00 0.00 74 1010.4
20260507022706 60 247 2.0 5.0 0.00 0.00 0.00 74 1010.3
20260507022606 60 260 2.0 5.0 0.00 0.00 0.00 74 1010.3
20260507022507 60 260 2.0 5.0 0.00 0.00 0.00 74 1010.3
20260507022407 60 260 2.0 5.0 0.00 0.00 0.00 74 1010.3
20260507022306 60 260 2.0 6.0 0.00 0.00 0.00 74 1010.3
20260507022206 60 260 2.0 6.0 0.00 0.00 0.00 74 1010.3
20260507022105 60 347 2.0 6.0 0.00 0.00 0.00 74 1010.3
20260507022007 60 289 2.0 6.0 0.00 0.00 0.00 74 1010.3
20260507021907 60 325 1.0 6.0 0.00 0.00 0.00 74 1010.3
20260507021807 60 282 1.0 6.0 0.00 0.00 0.00 74 1010.3
20260507021705 60 272 1.0 6.0 0.00 0.00 0.00 74 1010.3
20260507021605 60 5 1.0 6.0 0.00 0.00 0.00 74 1010.3
20260507021508 60 313 2.0 6.0 0.00 0.00 0.00 74 1010.3
20260507021406 60 297 2.0 8.0 0.00 0.00 0.00 74 1010.3
20260507021306 60 224 1.0 8.0 0.00 0.00 0.00 74 1010.3
20260507021206 60 220 1.0 8.0 0.00 0.00 0.00 74 1010.4
20260507021105 60 285 2.0 8.0 0.00 0.00 0.00 74 1010.4
20260507021008 60 227 2.0 8.0 0.00 0.00 0.00 74 1010.3
20260507020905 60 335 2.0 8.0 0.00 0.00 0.00 74 1010.3
20260507020805 60 335 2.0 8.0 0.00 0.00 0.00 74 1010.3
20260507020707 60 335 2.0 8.0 0.00 0.00 0.00 74 1010.3
20260507020605 60 335 2.0 8.0 0.00 0.00 0.00 74 1010.3
20260507020509 60 319 2.0 8.0 0.00 0.00 0.00 74 1010.4
20260507020306 60 290 2.0 6.0 0.00 0.00 0.00 75 1010.3
20260507020206 60 289 2.0 6.0 0.00 0.00 0.00 75 1010.4
20260507020107 60 360 2.0 6.0 0.00 0.00 0.00 75 1010.4
20260507020009 60 318 2.0 6.0 0.00 0.00 0.00 75 1010.3
20260507015905 60 312 2.0 6.0 0.00 0.00 0.00 75 1010.3
20260507015706 60 245 2.0 5.0 0.00 0.00 0.00 75 1010.3
20260507015605 60 330 2.0 5.0 0.00 0.00 0.00 76 1010.3
20260507015506 60 314 2.0 5.0 0.00 0.00 0.00 76 1010.3
20260507015404 60 330 3.0 6.0 0.00 0.00 0.00 76 1010.3
20260507015306 60 236 3.0 6.0 0.00 0.00 0.00 76 1010.4
20260507015204 60 288 3.0 6.0 0.00 0.00 0.00 76 1010.4
20260507015105 60 339 3.0 8.0 0.00 0.00 0.00 76 1010.4
20260507015009 60 12 3.0 8.0 0.00 0.00 0.00 76 1010.4
20260507014804 60 225 3.0 8.0 0.00 0.00 0.00 76 1010.3
20260507014704 60 220 3.0 8.0 0.00 0.00 0.00 76 1010.3
20260507014604 60 210 3.0 8.0 0.00 0.00 0.00 76 1010.4
20260507014507 60 283 3.0 8.0 0.00 0.00 0.00 77 1010.3
20260507014404 60 247 3.0 8.0 0.00 0.00 0.00 77 1010.3
20260507014305 60 69 3.0 8.0 0.00 0.00 0.00 77 1010.3
20260507014104 60 312 3.0 6.0 0.00 0.00 0.00 77 1010.3
20260507014007 60 279 3.0 6.0 0.00 0.00 0.00 77 1010.2
20260507013906 60 291 2.0 6.0 0.00 0.00 0.00 78 1010.2
20260507013807 60 348 2.0 6.0 0.00 0.00 0.00 78 1010.2
20260507013706 60 202 2.0 6.0 0.00 0.00 0.00 78 1010.2
20260507013605 60 313 2.0 6.0 0.00 0.00 0.00 78 1010.2
20260507013506 60 325 2.0 6.0 0.00 0.00 0.00 78 1010.2
20260507013405 60 335 2.0 6.0 0.00 0.00 0.00 78 1010.3
20260507013305 60 325 1.0 6.0 0.00 0.00 0.00 78 1010.3
20260507013204 60 347 1.0 6.0 0.00 0.00 0.00 78 1010.2
20260507013104 60 306 1.0 6.0 0.00 0.00 0.00 78 1010.2
20260507012906 60 342 1.0 3.0 0.00 0.00 0.00 78 1010.2
20260507012805 60 342 1.0 3.0 0.00 0.00 0.00 78 1010.3
20260507012706 60 342 0.0 3.0 0.00 0.00 0.00 78 1010.3
20260507012506 60 325 0.0 2.0 0.00 0.00 0.00 78 1010.3
20260507012405 60 325 0.0 2.0 0.00 0.00 0.00 78 1010.3
20260507012306 60 325 0.0 1.0 0.00 0.00 0.00 78 1010.3
20260507012206 60 325 0.0 1.0 0.00 0.00 0.00 78 1010.4
20260507012104 60 325 1.0 3.0 0.00 0.00 0.00 78 1010.3
20260507012008 60 325 1.0 3.0 0.00 0.00 0.00 78 1010.4
20260507011904 60 325 1.0 3.0 0.00 0.00 0.00 78 1010.3
20260507011804 60 325 1.0 3.0 0.00 0.00 0.00 78 1010.3
20260507011705 60 325 1.0 4.0 0.00 0.00 0.00 78 1010.3
20260507011607 60 325 1.0 4.0 0.00 0.00 0.00 78 1010.3
20260507011509 60 325 1.0 4.0 0.00 0.00 0.00 77 1010.3
20260507011404 60 325 1.0 4.0 0.00 0.00 0.00 77 1010.3
20260507011305 60 325 1.0 4.0 0.00 0.00 0.00 77 1010.3
20260507011205 60 325 1.0 4.0 0.00 0.00 0.00 77 1010.4
20260507011008 60 263 1.0 4.0 0.00 0.00 0.00 77 1010.4
20260507010905 60 239 1.0 4.0 0.00 0.00 0.00 77 1010.4
20260507010706 60 219 1.0 3.0 0.00 0.00 0.00 77 1010.4
20260507010606 60 278 1.0 3.0 0.00 0.00 0.00 77 1010.4
20260507010506 60 238 1.0 3.0 0.00 0.00 0.00 77 1010.4
20260507010306 60 279 1.0 3.0 0.00 0.00 0.00 77 1010.3
20260507010207 60 279 1.0 3.0 0.00 0.00 0.00 77 1010.3
20260507010105 60 279 1.0 3.0 0.00 0.00 0.00 77 1010.3
20260507010010 60 217 1.0 3.0 0.00 0.00 0.00 77 1010.4
20260507005904 60 217 1.0 3.0 0.00 0.00 0.00 77 1010.4
20260507005706 60 264 1.0 3.0 0.00 0.00 0.00 77 1010.4
20260507005507 60 251 1.0 3.0 0.00 0.00 0.00 77 1010.4
20260507005306 60 359 1.0 3.0 0.00 0.00 0.00 76 1010.3
20260507005206 60 359 1.0 4.0 0.00 0.00 0.00 76 1010.4
20260507005104 60 335 2.0 4.0 0.00 0.00 0.00 76 1010.4
20260507005009 60 352 2.0 4.0 0.00 0.00 0.00 76 1010.3
20260507004907 60 352 2.0 4.0 0.00 0.00 0.00 76 1010.4
20260507004805 60 352 2.0 4.0 0.00 0.00 0.00 76 1010.4
20260507004707 60 352 2.0 4.0 0.00 0.00 0.00 76 1010.4
20260507004607 61 352 2.0 4.0 0.00 0.00 0.00 75 1010.5
20260507004509 61 352 1.0 4.0 0.00 0.00 0.00 75 1010.5
20260507004407 61 352 1.0 4.0 0.00 0.00 0.00 75 1010.5
20260507004105 61 243 1.0 3.0 0.00 0.00 0.00 74 1010.5
20260507003905 61 251 1.0 3.0 0.00 0.00 0.00 74 1010.5
20260507003705 62 342 0.0 3.0 0.00 0.00 0.00 74 1010.5
20260507003606 62 256 0.0 3.0 0.00 0.00 0.00 74 1010.6
20260507003508 62 247 0.0 3.0 0.00 0.00 0.00 74 1010.6
20260507003106 62 330 0.0 0.0 0.00 0.00 0.00 74 1010.6
20260507003008 63 330 0.0 0.0 0.00 0.00 0.00 74 1010.6
20260507002508 63 330 0.0 0.0 0.00 0.00 0.00 74 1010.7
20260507002408 63 330 0.0 0.0 0.00 0.00 0.00 74 1010.7
20260507002308 63 330 0.0 0.0 0.00 0.00 0.00 74 1010.7
20260507002204 63 330 0.0 0.0 0.00 0.00 0.00 74 1010.6
20260507002106 62 330 0.0 0.0 0.00 0.00 0.00 74 1010.6
20260507002008 63 330 0.0 0.0 0.00 0.00 0.00 74 1010.6
20260507001908 63 330 0.0 0.0 0.00 0.00 0.00 74 1010.6
20260507001805 63 330 0.0 0.0 0.00 0.00 0.00 74 1010.6
20260507001706 63 330 0.0 0.0 0.00 0.00 0.00 74 1010.7
20260507001607 63 330 0.0 0.0 0.00 0.00 0.00 74 1010.6
20260507001509 63 330 0.0 1.0 0.00 0.00 0.00 74 1010.6
20260507001307 63 330 0.0 1.0 0.00 0.00 0.00 74 1010.6
20260507001207 63 330 0.0 1.0 0.00 0.00 0.00 74 1010.6
20260507001108 63 330 0.0 1.0 0.00 0.00 0.00 73 1010.6
20260507001008 63 330 0.0 1.0 0.00 0.00 0.00 74 1010.6
20260507000906 63 330 0.0 1.0 0.00 0.00 0.00 74 1010.5
20260507000805 63 330 0.0 1.0 0.00 0.00 0.00 74 1010.6
20260507000707 63 330 0.0 1.0 0.00 0.00 0.00 74 1010.6
20260507000606 63 330 0.0 0.0 0.00 0.00 0.00 74 1010.6
20260507000508 63 128 0.0 0.0 0.00 0.00 0.00 74 1010.5
20260507000405 63 128 0.0 0.0 0.00 0.00 0.00 74 1010.6
20260507000306 63 128 0.0 0.0 0.00 0.00 0.00 74 1010.6
20260507000106 63 128 0.0 0.0 0.00 0.00 0.00 74 1010.6
20260506235902 63 128 0.0 0.0 0.00 0.00 0.00 73 1010.6
20260506235700 63 128 0.0 0.0 0.00 0.00 0.00 73 1010.6
20260506235606 63 128 0.0 0.0 0.00 0.00 0.00 73 1010.6
20260506235406 63 128 0.0 0.0 0.00 0.00 0.00 73 1010.6
20260506235307 63 128 0.0 0.0 0.00 0.00 0.00 73 1010.5
20260506235104 63 128 0.0 0.0 0.00 0.00 0.00 73 1010.6
20260506235008 63 128 0.0 0.0 0.00 0.00 0.00 73 1010.6
20260506234904 63 128 0.0 0.0 0.00 0.00 0.00 73 1010.6
20260506234805 63 128 0.0 0.0 0.00 0.00 0.00 73 1010.6
20260506234706 63 128 0.0 0.0 0.00 0.00 0.00 73 1010.6
20260506234508 63 128 0.0 0.0 0.00 0.00 0.00 73 1010.7
20260506234407 63 128 0.0 0.0 0.00 0.00 0.00 73 1010.7
20260506234304 63 128 0.0 0.0 0.00 0.00 0.00 73 1010.9
20260506234205 63 128 0.0 0.0 0.00 0.00 0.00 73 1010.8
20260506234105 63 128 0.0 0.0 0.00 0.00 0.00 73 1010.8
20260506234006 63 128 0.0 0.0 0.00 0.00 0.00 73 1010.9
20260506233907 63 128 0.0 0.0 0.00 0.00 0.00 73 1010.8
20260506233705 63 128 0.0 0.0 0.00 0.00 0.00 73 1010.9
20260506233510 63 128 0.0 0.0 0.00 0.00 0.00 73 1010.9
20260506233404 63 128 0.0 0.0 0.00 0.00 0.00 73 1010.9
20260506233304 63 128 0.0 0.0 0.00 0.00 0.00 73 1010.9
20260506233204 63 128 0.0 0.0 0.00 0.00 0.00 73 1010.9
20260506233106 63 128 0.0 0.0 0.00 0.00 0.00 73 1010.9
20260506233007 63 128 0.0 0.0 0.00 0.00 0.00 73 1010.9
20260506232904 63 128 0.0 0.0 0.00 0.00 0.00 73 1011.0
20260506232804 63 128 0.0 0.0 0.00 0.00 0.00 73 1010.9
20260506232707 63 128 0.0 0.0 0.00 0.00 0.00 73 1011.0
20260506232606 63 128 0.0 0.0 0.00 0.00 0.00 73 1011.0
20260506232507 63 128 0.0 0.0 0.00 0.00 0.00 73 1011.0
20260506232404 63 128 0.0 0.0 0.00 0.00 0.00 73 1011.0
20260506232204 63 128 0.0 0.0 0.00 0.00 0.00 73 1011.0
20260506232105 63 128 0.0 0.0 0.00 0.00 0.00 73 1011.0
20260506231905 63 128 0.0 0.0 0.00 0.00 0.00 73 1010.9
20260506231807 63 128 0.0 0.0 0.00 0.00 0.00 73 1011.0
20260506231705 63 128 0.0 0.0 0.00 0.00 0.00 72 1010.9
20260506231605 63 128 0.0 0.0 0.00 0.00 0.00 72 1011.0
20260506231506 63 128 0.0 0.0 0.00 0.00 0.00 72 1011.0
20260506231405 63 128 0.0 0.0 0.00 0.00 0.00 72 1011.0
20260506231305 63 128 0.0 0.0 0.00 0.00 0.00 72 1011.0
20260506231205 63 128 0.0 0.0 0.00 0.00 0.00 72 1011.0
20260506231105 63 128 0.0 0.0 0.00 0.00 0.00 72 1011.0
20260506231008 63 128 0.0 0.0 0.00 0.00 0.00 72 1011.0
20260506230906 63 128 0.0 0.0 0.00 0.00 0.00 72 1011.0
20260506230806 63 128 0.0 0.0 0.00 0.00 0.00 72 1011.0
20260506230704 63 128 0.0 0.0 0.00 0.00 0.00 72 1011.1
20260506230508 63 128 0.0 0.0 0.00 0.00 0.00 72 1011.0
20260506230305 63 128 0.0 0.0 0.00 0.00 0.00 72 1011.1
20260506230205 63 128 0.0 0.0 0.00 0.00 0.00 72 1011.1
20260506230105 63 128 0.0 0.0 0.00 0.00 0.00 71 1011.1
20260506230009 63 128 0.0 0.0 0.00 0.00 0.00 71 1011.1
20260506225907 63 128 0.0 0.0 0.00 0.00 0.00 71 1011.1
20260506225807 63 128 0.0 1.0 0.00 0.00 0.00 71 1011.0
20260506225704 63 128 0.0 1.0 0.00 0.00 0.00 71 1011.1
20260506225607 63 128 0.0 1.0 0.00 0.00 0.00 71 1011.1
20260506225506 64 128 0.0 1.0 0.00 0.00 0.00 71 1011.1
20260506225307 64 128 0.0 1.0 0.00 0.00 0.00 71 1011.1
20260506225106 64 128 0.0 3.0 0.00 0.00 0.00 71 1011.1
20260506225009 64 128 0.0 3.0 0.00 0.00 0.00 71 1011.1
20260506224905 64 128 0.0 3.0 0.00 0.00 0.00 71 1011.1
20260506224805 64 128 0.0 3.0 0.00 0.00 0.00 71 1011.2
20260506224705 64 128 0.0 3.0 0.00 0.00 0.00 71 1011.1
20260506224607 64 128 0.0 3.0 0.00 0.00 0.00 71 1011.2
20260506224506 64 128 1.0 3.0 0.00 0.00 0.00 71 1011.1
20260506224404 64 128 1.0 3.0 0.00 0.00 0.00 71 1011.1
20260506224306 64 128 1.0 3.0 0.00 0.00 0.00 71 1011.1
20260506224204 64 128 0.0 3.0 0.00 0.00 0.00 71 1011.1
20260506224105 64 91 1.0 3.0 0.00 0.00 0.00 71 1011.2
20260506224008 64 91 1.0 3.0 0.00 0.00 0.00 71 1011.2
20260506223904 64 91 1.0 3.0 0.00 0.00 0.00 71 1011.1
20260506223805 64 91 1.0 3.0 0.00 0.00 0.00 70 1011.1
20260506223705 64 101 1.0 3.0 0.00 0.00 0.00 70 1011.1
20260506223604 64 101 0.0 3.0 0.00 0.00 0.00 70 1011.1
20260506223506 64 101 0.0 3.0 0.00 0.00 0.00 70 1011.2
20260506223405 64 36 0.0 2.0 0.00 0.00 0.00 71 1011.1
20260506223304 64 318 0.0 2.0 0.00 0.00 0.00 71 1011.2
20260506223204 64 318 0.0 2.0 0.00 0.00 0.00 71 1011.1
20260506223007 64 318 1.0 2.0 0.00 0.00 0.00 71 1011.1
20260506222904 64 178 1.0 3.0 0.00 0.00 0.00 70 1011.1
20260506222805 64 178 1.0 6.0 0.00 0.00 0.00 70 1011.1
20260506222705 64 178 1.0 7.0 0.00 0.00 0.00 70 1011.0
20260506222607 64 91 1.0 7.0 0.00 0.00 0.00 70 1011.1
20260506222509 64 91 2.0 7.0 0.00 0.00 0.00 70 1011.1
20260506222404 64 91 2.0 7.0 0.00 0.00 0.00 70 1011.1
20260506222306 64 91 2.0 7.0 0.00 0.00 0.00 70 1011.1
20260506222206 64 91 3.0 7.0 0.00 0.00 0.00 70 1011.1
20260506221904 64 98 2.0 7.0 0.00 0.00 0.00 70 1011.2
20260506221805 64 68 2.0 7.0 0.00 0.00 0.00 70 1011.2
20260506221705 64 100 2.0 7.0 0.00 0.00 0.00 70 1011.2
20260506221607 64 82 2.0 7.0 0.00 0.00 0.00 70 1011.2
20260506221507 64 96 2.0 7.0 0.00 0.00 0.00 70 1011.2
20260506221405 64 69 2.0 7.0 0.00 0.00 0.00 70 1011.2
20260506221305 64 114 1.0 7.0 0.00 0.00 0.00 70 1011.2
20260506221205 64 158 1.0 7.0 0.00 0.00 0.00 70 1011.2
20260506221106 64 112 1.0 4.0 0.00 0.00 0.00 70 1011.1
20260506221008 64 83 1.0 4.0 0.00 0.00 0.00 70 1011.2
20260506220804 64 83 1.0 4.0 0.00 0.00 0.00 70 1011.2
20260506220705 64 65 1.0 4.0 0.00 0.00 0.00 70 1011.2
20260506220605 64 131 1.0 4.0 0.00 0.00 0.00 70 1011.2
20260506220507 64 121 1.0 4.0 0.00 0.00 0.00 70 1011.1
20260506220306 64 127 2.0 9.0 0.00 0.00 0.00 70 1011.1
20260506220206 64 127 2.0 9.0 0.00 0.00 0.00 70 1011.1
20260506220107 64 127 2.0 9.0 0.00 0.00 0.00 70 1011.1
20260506220008 64 127 2.0 9.0 0.00 0.00 0.00 70 1011.1
20260506215906 64 93 2.0 9.0 0.00 0.00 0.00 70 1011.1
20260506215806 64 39 2.0 9.0 0.00 0.00 0.00 70 1011.1
20260506215706 64 81 2.0 9.0 0.00 0.00 0.00 70 1011.1
20260506215606 64 77 2.0 9.0 0.00 0.00 0.00 70 1011.2
20260506215508 64 98 2.0 9.0 0.00 0.00 0.00 70 1011.1
20260506215408 64 110 2.0 9.0 0.00 0.00 0.00 70 1011.1
20260506215307 64 107 2.0 8.0 0.00 0.00 0.00 70 1011.2
20260506215206 64 75 2.0 7.0 0.00 0.00 0.00 70 1011.2
20260506215008 64 59 2.0 7.0 0.00 0.00 0.00 70 1011.2
20260506214906 64 59 2.0 7.0 0.00 0.00 0.00 70 1011.1
20260506214806 64 66 1.0 7.0 0.00 0.00 0.00 70 1011.2
20260506214707 64 129 1.0 5.0 0.00 0.00 0.00 70 1011.2
20260506214606 64 77 1.0 4.0 0.00 0.00 0.00 70 1011.2
20260506214507 64 126 1.0 4.0 0.00 0.00 0.00 70 1011.2
20260506214406 64 126 1.0 4.0 0.00 0.00 0.00 70 1011.3
20260506214307 64 42 2.0 7.0 0.00 0.00 0.00 70 1011.2
20260506214206 64 42 1.0 7.0 0.00 0.00 0.00 70 1011.2
20260506214105 64 325 2.0 7.0 0.00 0.00 0.00 70 1011.2
20260506214008 64 325 2.0 7.0 0.00 0.00 0.00 70 1011.2
20260506213906 64 325 2.0 7.0 0.00 0.00 0.00 70 1011.2
20260506213806 64 104 2.0 7.0 0.00 0.00 0.00 70 1011.1
20260506213707 64 104 3.0 7.0 0.00 0.00 0.00 70 1011.2
20260506213607 64 104 3.0 7.0 0.00 0.00 0.00 70 1011.2
20260506213308 64 133 2.0 8.0 0.00 0.00 0.00 70 1011.1
20260506213205 64 3 3.0 8.0 0.00 0.00 0.00 70 1011.2
20260506213009 64 109 2.0 8.0 0.00 0.00 0.00 70 1011.1
20260506212907 64 108 2.0 8.0 0.00 0.00 0.00 70 1011.1
20260506212806 64 12 2.0 8.0 0.00 0.00 0.00 70 1011.2
20260506212706 64 89 2.0 8.0 0.00 0.00 0.00 70 1011.2
20260506212606 64 5 2.0 8.0 0.00 0.00 0.00 70 1011.2
20260506212507 64 68 2.0 8.0 0.00 0.00 0.00 70 1011.2
20260506212307 64 339 2.0 8.0 0.00 0.00 0.00 70 1011.1
20260506212205 64 127 2.0 9.0 0.00 0.00 0.00 70 1011.1
20260506212106 64 97 2.0 9.0 0.00 0.00 0.00 70 1011.0
20260506212008 64 216 3.0 9.0 0.00 0.00 0.00 70 1011.1
20260506211908 64 96 3.0 9.0 0.00 0.00 0.00 70 1011.1
20260506211806 64 87 2.0 9.0 0.00 0.00 0.00 70 1011.0
20260506211706 64 77 2.0 9.0 0.00 0.00 0.00 70 1011.0
20260506211606 64 116 3.0 9.0 0.00 0.00 0.00 70 1011.0
20260506211406 64 100 3.0 12.0 0.00 0.00 0.00 70 1011.0
20260506211308 64 104 3.0 12.0 0.00 0.00 0.00 70 1011.0
20260506211206 64 202 3.0 12.0 0.00 0.00 0.00 70 1011.0
20260506211008 64 91 3.0 12.0 0.00 0.00 0.00 70 1011.0
20260506210907 64 109 3.0 12.0 0.00 0.00 0.00 70 1010.9
20260506210806 64 109 4.0 12.0 0.00 0.00 0.00 70 1010.9
20260506210706 64 109 4.0 12.0 0.00 0.00 0.00 70 1010.9
20260506210606 64 62 5.0 12.0 0.00 0.00 0.00 70 1010.9
20260506210507 64 70 5.0 11.0 0.00 0.00 0.00 70 1010.8
20260506210405 64 345 5.0 12.0 0.00 0.00 0.00 70 1010.8
20260506210306 64 64 4.0 12.0 0.00 0.00 0.00 70 1010.8
20260506210206 64 52 4.0 12.0 0.00 0.00 0.00 70 1010.8
20260506210106 64 61 4.0 12.0 0.00 0.00 0.00 70 1010.7
20260506210011 64 339 4.0 12.0 0.00 0.00 0.00 70 1010.7
20260506205908 64 170 4.0 12.0 0.00 0.00 0.00 70 1010.7
20260506205808 64 64 4.0 12.0 0.00 0.00 0.00 70 1010.7
20260506205706 64 81 3.0 12.0 0.00 0.00 0.00 70 1010.7
20260506205607 64 70 3.0 12.0 0.00 0.00 0.00 70 1010.7
20260506205509 64 64 3.0 10.0 0.00 0.00 0.00 69 1010.7
20260506205406 64 97 2.0 10.0 0.00 0.00 0.00 69 1010.8
20260506205307 64 93 2.0 10.0 0.00 0.00 0.00 70 1010.7
20260506205207 64 82 2.0 10.0 0.00 0.00 0.00 70 1010.7
20260506205107 64 300 2.0 10.0 0.00 0.00 0.00 70 1010.6
20260506205009 64 335 3.0 10.0 0.00 0.00 0.00 70 1010.6
20260506204907 64 111 3.0 10.0 0.00 0.00 0.00 70 1010.6
20260506204808 64 10 2.0 10.0 0.00 0.00 0.00 70 1010.6
20260506204706 64 116 2.0 10.0 0.00 0.00 0.00 70 1010.6
20260506204509 64 68 3.0 10.0 0.00 0.00 0.00 70 1010.6
20260506204407 64 40 3.0 11.0 0.00 0.00 0.00 70 1010.5
20260506204208 64 51 2.0 11.0 0.00 0.00 0.00 70 1010.5
20260506204108 64 306 3.0 11.0 0.00 0.00 0.00 70 1010.5
20260506204010 64 31 3.0 11.0 0.00 0.00 0.00 70 1010.4
20260506203908 64 22 3.0 11.0 0.00 0.00 0.00 71 1010.4
20260506203808 64 102 3.0 11.0 0.00 0.00 0.00 71 1010.4
20260506203708 64 325 4.0 11.0 0.00 0.00 0.00 71 1010.3
20260506203607 64 44 3.0 11.0 0.00 0.00 0.00 71 1010.5
20260506203509 64 27 3.0 9.0 0.00 0.00 0.00 71 1010.3
20260506203407 64 27 3.0 9.0 0.00 0.00 0.00 71 1010.4
20260506203309 64 319 4.0 9.0 0.00 0.00 0.00 71 1010.4
20260506203208 64 96 4.0 9.0 0.00 0.00 0.00 71 1010.4
20260506203108 64 330 4.0 9.0 0.00 0.00 0.00 71 1010.3
20260506203012 64 26 4.0 11.0 0.00 0.00 0.00 71 1010.4
20260506202907 64 81 4.0 11.0 0.00 0.00 0.00 71 1010.4
20260506202608 64 304 4.0 11.0 0.00 0.00 0.00 71 1010.4
20260506202509 64 75 4.0 11.0 0.00 0.00 0.00 70 1010.4
20260506202207 64 39 5.0 15.0 0.00 0.00 0.00 70 1010.3
20260506202107 64 12 6.0 15.0 0.00 0.00 0.00 71 1010.3
20260506202010 64 19 6.0 15.0 0.00 0.00 0.00 71 1010.3
20260506201908 64 330 5.0 15.0 0.00 0.00 0.00 71 1010.3
20260506201809 64 77 5.0 15.0 0.00 0.00 0.00 71 1010.3
20260506201708 64 46 6.0 15.0 0.00 0.00 0.00 71 1010.3
20260506201510 64 64 6.0 15.0 0.00 0.00 0.00 71 1010.3
20260506201407 64 64 5.0 15.0 0.00 0.00 0.00 70 1010.2
20260506201307 64 64 4.0 14.0 0.00 0.00 0.00 70 1010.3
20260506201209 64 66 4.0 14.0 0.00 0.00 0.00 71 1010.2
20260506201108 64 38 3.0 11.0 0.00 0.00 0.00 71 1010.2
20260506201009 64 41 4.0 11.0 0.00 0.00 0.00 71 1010.1
20260506200907 64 33 4.0 11.0 0.00 0.00 0.00 71 1010.1
20260506200706 64 50 4.0 11.0 0.00 0.00 0.00 70 1010.2
20260506200608 64 85 4.0 11.0 0.00 0.00 0.00 70 1010.2
20260506200306 64 41 4.0 13.0 0.00 0.00 0.00 70 1010.1
20260506200207 64 46 4.0 13.0 0.00 0.00 0.00 70 1010.1
20260506200107 64 104 4.0 13.0 0.00 0.00 0.00 70 1010.1
20260506200010 64 124 4.0 13.0 0.00 0.00 0.00 70 1010.1
20260506195908 64 58 3.0 13.0 0.00 0.00 0.00 70 1010.0
20260506195806 64 164 2.0 13.0 0.00 0.00 0.00 70 1010.1
20260506195706 64 109 2.0 13.0 0.00 0.00 0.00 70 1010.0
20260506195406 64 68 2.0 6.0 0.00 0.00 0.00 70 1010.1
20260506195308 64 91 2.0 6.0 0.00 0.00 0.00 70 1010.1
20260506195107 64 335 2.0 9.0 0.00 0.00 0.00 70 1010.1
20260506194808 64 346 2.0 9.0 0.00 0.00 0.00 70 1010.0
20260506194708 64 347 2.0 9.0 0.00 0.00 0.00 70 1010.1
20260506194307 64 78 3.0 9.0 0.00 0.00 0.00 71 1009.9
20260506194207 64 98 3.0 9.0 0.00 0.00 0.00 71 1009.9
20260506194108 64 39 3.0 9.0 0.00 0.00 0.00 71 1009.9
20260506194010 64 71 4.0 9.0 0.00 0.00 0.00 71 1009.9
20260506193908 64 345 4.0 10.0 0.00 0.00 0.00 72 1009.9
20260506193809 64 112 4.0 10.0 0.00 0.00 0.00 72 1009.9
20260506193708 64 258 4.0 10.0 0.00 0.00 0.00 72 1009.8
20260506193609 64 251 4.0 10.0 0.00 0.00 0.00 71 1009.8
20260506193510 64 43 4.0 10.0 0.00 0.00 0.00 71 1009.7
20260506193408 64 129 3.0 10.0 0.00 0.00 0.00 71 1009.7
20260506193308 64 114 3.0 10.0 0.00 0.00 0.00 71 1009.7
20260506193208 64 114 3.0 10.0 0.00 0.00 0.00 71 1009.7
20260506193108 64 72 3.0 10.0 0.00 0.00 0.00 71 1009.7
20260506193011 64 36 3.0 10.0 0.00 0.00 0.00 71 1009.8
20260506192908 64 112 3.0 10.0 0.00 0.00 0.00 71 1009.8
20260506192808 64 154 3.0 10.0 0.00 0.00 0.00 71 1009.7
20260506192709 64 118 4.0 10.0 0.00 0.00 0.00 71 1009.7
20260506192608 64 353 4.0 10.0 0.00 0.00 0.00 71 1009.7
20260506192509 64 100 4.0 11.0 0.00 0.00 0.00 72 1009.7
20260506192408 64 102 4.0 11.0 0.00 0.00 0.00 72 1009.8
20260506192108 64 110 3.0 11.0 0.00 0.00 0.00 72 1009.7
20260506191810 64 40 3.0 11.0 0.00 0.00 0.00 72 1009.7
20260506191708 64 77 3.0 11.0 0.00 0.00 0.00 72 1009.7
20260506191607 64 104 3.0 9.0 0.00 0.00 0.00 72 1009.7
20260506191509 64 25 3.0 9.0 0.00 0.00 0.00 72 1009.6
20260506191309 64 30 3.0 9.0 0.00 0.00 0.00 72 1009.6
20260506191207 64 39 3.0 9.0 0.00 0.00 0.00 72 1009.7
20260506191108 64 153 3.0 9.0 0.00 0.00 0.00 72 1009.7
20260506191010 64 105 3.0 9.0 0.00 0.00 0.00 72 1009.6
20260506190908 64 125 4.0 9.0 0.00 0.00 0.00 72 1009.5
20260506190808 64 51 3.0 9.0 0.00 0.00 0.00 71 1009.5
20260506190709 64 139 3.0 9.0 0.00 0.00 0.00 71 1009.5
20260506190608 64 98 3.0 8.0 0.00 0.00 0.00 71 1009.5
20260506190509 64 317 3.0 9.0 0.00 0.00 0.00 71 1009.5
20260506190408 64 93 4.0 9.0 0.00 0.00 0.00 71 1009.5
20260506190308 64 129 4.0 9.0 0.00 0.00 0.00 71 1009.5
20260506190207 64 239 4.0 10.0 0.00 0.00 0.00 71 1009.5
20260506190107 64 144 4.0 10.0 0.00 0.00 0.00 71 1009.5
20260506185906 64 81 4.0 12.0 0.00 0.00 0.00 71 1009.4
20260506185807 64 164 4.0 12.0 0.00 0.00 0.00 71 1009.5
20260506185707 64 87 4.0 12.0 0.00 0.00 0.00 71 1009.5
20260506185608 64 127 4.0 12.0 0.00 0.00 0.00 72 1009.5
20260506185507 64 71 4.0 12.0 0.00 0.00 0.00 72 1009.5
20260506185405 64 102 5.0 12.0 0.00 0.00 0.00 72 1009.5
20260506185307 64 234 4.0 12.0 0.00 0.00 0.00 72 1009.5
20260506185206 64 81 5.0 12.0 0.00 0.00 0.00 72 1009.4
20260506185008 64 105 5.0 10.0 0.00 0.00 0.00 72 1009.4
20260506184906 64 58 4.0 10.0 0.00 0.00 0.00 72 1009.5
20260506184806 64 6 5.0 10.0 0.00 0.00 0.00 72 1009.4
20260506184706 64 330 5.0 10.0 0.00 0.00 0.00 72 1009.4
20260506184607 64 171 5.0 10.0 0.00 0.00 0.00 72 1009.4
20260506184507 64 103 5.0 10.0 0.00 0.00 0.00 73 1009.3
20260506184406 64 79 4.0 10.0 0.00 0.00 0.00 72 1009.4
20260506184306 64 123 4.0 10.0 0.00 0.00 0.00 73 1009.4
20260506184207 64 88 4.0 10.0 0.00 0.00 0.00 73 1009.4
20260506184106 64 91 4.0 10.0 0.00 0.00 0.00 73 1009.3
20260506184008 64 110 4.0 10.0 0.00 0.00 0.00 73 1009.4
20260506183906 64 81 3.0 10.0 0.00 0.00 0.00 73 1009.4
20260506183806 64 101 4.0 10.0 0.00 0.00 0.00 73 1009.4
20260506183706 64 85 4.0 10.0 0.00 0.00 0.00 72 1009.4
20260506183606 64 74 3.0 10.0 0.00 0.00 0.00 72 1009.5
20260506183509 64 96 3.0 9.0 0.00 0.00 0.00 72 1009.4
20260506183406 64 130 3.0 9.0 0.00 0.00 0.00 72 1009.3
20260506183307 64 316 3.0 8.0 0.00 0.00 0.00 72 1009.3
20260506183206 64 107 3.0 9.0 0.00 0.00 0.00 72 1009.3
20260506183009 64 64 4.0 9.0 0.00 0.00 0.00 72 1009.4
20260506182906 64 112 4.0 9.0 0.00 0.00 0.00 72 1009.4
20260506182805 64 106 4.0 11.0 0.00 0.00 0.00 72 1009.3
20260506182705 64 86 4.0 13.0 0.00 0.00 0.00 72 1009.4
20260506182605 64 160 4.0 13.0 0.00 0.00 0.00 72 1009.3
20260506182406 64 114 4.0 13.0 0.00 0.00 0.00 72 1009.3
20260506182307 64 96 4.0 13.0 0.00 0.00 0.00 72 1009.4
20260506182206 64 79 4.0 13.0 0.00 0.00 0.00 72 1009.3
20260506182106 64 56 4.0 13.0 0.00 0.00 0.00 72 1009.3
20260506182008 64 114 4.0 13.0 0.00 0.00 0.00 72 1009.3
20260506181907 64 145 4.0 13.0 0.00 0.00 0.00 72 1009.3
20260506181806 64 95 4.0 13.0 0.00 0.00 0.00 71 1009.2
20260506181706 64 121 3.0 12.0 0.00 0.00 0.00 72 1009.3
20260506181609 64 105 3.0 12.0 0.00 0.00 0.00 72 1009.3
20260506181507 64 150 3.0 12.0 0.00 0.00 0.00 72 1009.3
20260506181306 64 124 3.0 12.0 0.00 0.00 0.00 71 1009.3
20260506181206 64 64 3.0 9.0 0.00 0.00 0.00 71 1009.3
20260506181106 64 81 3.0 9.0 0.00 0.00 0.00 71 1009.4
20260506181010 64 86 3.0 9.0 0.00 0.00 0.00 71 1009.3
20260506180707 64 256 4.0 9.0 0.00 0.00 0.00 71 1009.4
20260506180606 64 102 4.0 11.0 0.00 0.00 0.00 71 1009.4
20260506180306 64 137 4.0 11.0 0.00 0.00 0.00 71 1009.4
20260506180106 64 45 4.0 11.0 0.00 0.00 0.00 71 1009.4
20260506180009 64 49 3.0 11.0 0.00 0.00 0.00 70 1009.3
20260506175907 64 110 3.0 11.0 0.00 0.00 0.00 70 1009.3
20260506175605 64 34 2.0 9.0 0.00 0.00 0.00 71 1009.4
20260506175508 64 104 2.0 8.0 0.00 0.00 0.00 71 1009.4
20260506175406 64 4 2.0 6.0 0.00 0.00 0.00 71 1009.3
20260506175306 64 11 3.0 10.0 0.00 0.00 0.00 71 1009.4
20260506175107 64 98 3.0 10.0 0.00 0.00 0.00 71 1009.5
20260506175012 64 50 3.0 10.0 0.00 0.00 0.00 71 1009.4
20260506174907 64 100 3.0 10.0 0.00 0.00 0.00 71 1009.4
20260506174805 64 259 3.0 10.0 0.00 0.00 0.00 71 1009.4
20260506174706 64 335 3.0 10.0 0.00 0.00 0.00 71 1009.4
20260506174606 64 353 3.0 10.0 0.00 0.00 0.00 71 1009.4
20260506174507 64 116 3.0 10.0 0.00 0.00 0.00 71 1009.4
20260506174407 64 340 3.0 10.0 0.00 0.00 0.00 71 1009.4
20260506174306 64 345 3.0 10.0 0.00 0.00 0.00 71 1009.4
20260506174106 64 102 3.0 10.0 0.00 0.00 0.00 71 1009.5
20260506174007 64 154 3.0 10.0 0.00 0.00 0.00 71 1009.6
20260506173906 64 100 3.0 10.0 0.00 0.00 0.00 71 1009.5
20260506173806 64 304 4.0 10.0 0.00 0.00 0.00 71 1009.6
20260506173706 64 16 4.0 10.0 0.00 0.00 0.00 71 1009.6
20260506173507 64 100 4.0 10.0 0.00 0.00 0.00 71 1009.6
20260506173407 64 62 4.0 10.0 0.00 0.00 0.00 71 1009.6
20260506173306 64 347 4.0 14.0 0.00 0.00 0.00 71 1009.6
20260506173206 64 81 4.0 14.0 0.00 0.00 0.00 71 1009.6
20260506173106 64 330 4.0 14.0 0.00 0.00 0.00 71 1009.6
20260506173008 64 75 5.0 14.0 0.00 0.00 0.00 71 1009.6
20260506172906 64 23 4.0 14.0 0.00 0.00 0.00 71 1009.6
20260506172806 64 140 4.0 14.0 0.00 0.00 0.00 71 1009.5
20260506172706 64 152 4.0 14.0 0.00 0.00 0.00 71 1009.5
20260506172606 64 45 4.0 14.0 0.00 0.00 0.00 71 1009.5
20260506172507 64 83 4.0 14.0 0.00 0.00 0.00 71 1009.5
20260506172207 64 55 5.0 14.0 0.00 0.00 0.00 71 1009.5
20260506171906 64 193 6.0 14.0 0.00 0.00 0.00 72 1009.5
20260506171807 64 226 6.0 14.0 0.00 0.00 0.00 72 1009.5
20260506171707 64 110 7.0 14.0 0.00 0.00 0.00 72 1009.5
20260506171606 64 13 7.0 14.0 0.00 0.00 0.00 72 1009.5
20260506171509 64 67 7.0 14.0 0.00 0.00 0.00 72 1009.5
20260506171407 64 48 7.0 14.0 0.00 0.00 0.00 72 1009.5
20260506171306 64 75 7.0 13.0 0.00 0.00 0.00 72 1009.5
20260506171206 64 39 6.0 13.0 0.00 0.00 0.00 71 1009.5
20260506171106 64 79 6.0 14.0 0.00 0.00 0.00 71 1009.5
20260506171008 64 93 6.0 14.0 0.00 0.00 0.00 71 1009.5
20260506170906 64 41 6.0 14.0 0.00 0.00 0.00 70 1009.4
20260506170806 65 72 5.0 14.0 0.00 0.00 0.00 71 1009.4
20260506170606 65 52 5.0 14.0 0.00 0.00 0.00 71 1009.5
20260506170507 65 60 5.0 14.0 0.00 0.00 0.00 71 1009.4
20260506170405 65 23 4.0 14.0 0.00 0.00 0.00 71 1009.4
20260506170307 65 21 4.0 14.0 0.00 0.00 0.00 70 1009.4
20260506170109 65 32 3.0 14.0 0.00 0.00 0.00 71 1009.5
20260506170009 65 75 3.0 13.0 0.00 0.00 0.00 71 1009.5
20260506165906 65 184 3.0 13.0 0.00 0.00 0.00 71 1009.5
20260506165806 65 110 3.0 13.0 0.00 0.00 0.00 70 1009.4
20260506165706 65 103 3.0 13.0 0.00 0.00 0.00 70 1009.5
20260506165606 65 360 2.0 13.0 0.00 0.00 0.00 69 1009.5
20260506165106 65 360 2.0 6.0 0.00 0.00 0.00 70 1009.4
20260506164806 65 190 3.0 12.0 0.00 0.00 0.00 70 1009.4
20260506164708 65 156 3.0 12.0 0.00 0.00 0.00 70 1009.4
20260506164606 65 229 3.0 12.0 0.00 0.00 0.00 70 1009.4
20260506164508 65 345 3.0 12.0 0.00 0.00 0.00 70 1009.4
20260506164406 65 87 3.0 12.0 0.00 0.00 0.00 70 1009.4
20260506164306 65 65 3.0 12.0 0.00 0.00 0.00 71 1009.4
20260506164206 65 16 3.0 12.0 0.00 0.00 0.00 70 1009.5
20260506164105 65 79 3.0 12.0 0.00 0.00 0.00 70 1009.4
20260506164008 65 97 3.0 12.0 0.00 0.00 0.00 71 1009.4
20260506163906 65 125 3.0 10.0 0.00 0.00 0.00 71 1009.5
20260506163806 65 181 3.0 10.0 0.00 0.00 0.00 71 1009.5
20260506163707 65 207 3.0 10.0 0.00 0.00 0.00 71 1009.5
20260506163607 65 150 3.0 10.0 0.00 0.00 0.00 70 1009.5
20260506163508 65 57 3.0 10.0 0.00 0.00 0.00 70 1009.4
20260506163407 65 71 3.0 10.0 0.00 0.00 0.00 70 1009.5
20260506163307 65 176 3.0 10.0 0.00 0.00 0.00 70 1009.5
20260506163207 65 137 3.0 10.0 0.00 0.00 0.00 70 1009.5
20260506163106 65 143 3.0 10.0 0.00 0.00 0.00 70 1009.4
20260506163009 65 159 4.0 11.0 0.00 0.00 0.00 70 1009.4
20260506162906 65 96 4.0 12.0 0.00 0.00 0.00 70 1009.4
20260506162806 65 108 5.0 14.0 0.00 0.00 0.00 69 1009.4
20260506162705 65 345 5.0 14.0 0.00 0.00 0.00 69 1009.4
20260506162608 65 143 5.0 14.0 0.00 0.00 0.00 69 1009.4
20260506162508 65 74 5.0 14.0 0.00 0.00 0.00 69 1009.4
20260506162406 65 11 5.0 14.0 0.00 0.00 0.00 69 1009.3
20260506162307 65 325 5.0 14.0 0.00 0.00 0.00 69 1009.3
20260506162207 65 46 4.0 14.0 0.00 0.00 0.00 69 1009.3
20260506162106 65 123 4.0 14.0 0.00 0.00 0.00 69 1009.4
20260506162008 65 79 3.0 14.0 0.00 0.00 0.00 69 1009.4
20260506161907 66 81 3.0 12.0 0.00 0.00 0.00 69 1009.4
20260506161806 66 39 3.0 12.0 0.00 0.00 0.00 69 1009.4
20260506161705 66 79 2.0 9.0 0.00 0.00 0.00 69 1009.4
20260506161511 66 95 3.0 8.0 0.00 0.00 0.00 69 1009.3
20260506161405 66 49 3.0 11.0 0.00 0.00 0.00 69 1009.3
20260506161311 66 61 2.0 11.0 0.00 0.00 0.00 68 1009.3
20260506161219 66 83 2.0 11.0 0.00 0.00 0.00 68 1009.4
20260506161113 66 291 2.0 11.0 0.00 0.00 0.00 68 1009.4
20260506161009 66 67 3.0 11.0 0.00 0.00 0.00 68 1009.4
20260506160913 66 269 3.0 11.0 0.00 0.00 0.00 68 1009.4
20260506160820 66 33 3.0 11.0 0.00 0.00 0.00 68 1009.3
20260506160720 66 276 3.0 11.0 0.00 0.00 0.00 69 1009.5
20260506160507 66 108 3.0 11.0 0.00 0.00 0.00 69 1009.5
20260506160405 66 151 3.0 10.0 0.00 0.00 0.00 69 1009.5
20260506160206 66 85 3.0 12.0 0.00 0.00 0.00 69 1009.5
20260506160105 66 45 3.0 12.0 0.00 0.00 0.00 70 1009.4
20260506160010 66 8 3.0 12.0 0.00 0.00 0.00 69 1009.5
20260506155906 66 335 3.0 12.0 0.00 0.00 0.00 69 1009.5
20260506155805 66 41 4.0 12.0 0.00 0.00 0.00 69 1009.4
20260506155707 66 103 4.0 12.0 0.00 0.00 0.00 69 1009.5
20260506155606 66 125 4.0 12.0 0.00 0.00 0.00 69 1009.5
20260506155507 66 53 3.0 12.0 0.00 0.00 0.00 69 1009.4
20260506155406 66 113 3.0 11.0 0.00 0.00 0.00 70 1009.4
20260506155306 66 77 3.0 9.0 0.00 0.00 0.00 70 1009.4
20260506155205 66 193 3.0 9.0 0.00 0.00 0.00 70 1009.4
20260506155106 66 264 4.0 9.0 0.00 0.00 0.00 70 1009.4
20260506154906 66 234 4.0 11.0 0.00 0.00 0.00 69 1009.4
20260506154806 65 118 4.0 11.0 0.00 0.00 0.00 69 1009.4
20260506154707 65 259 5.0 11.0 0.00 0.00 0.00 69 1009.4
20260506154508 65 76 5.0 12.0 0.00 0.00 0.00 70 1009.5
20260506154405 65 90 5.0 14.0 0.00 0.00 0.00 70 1009.4
20260506154306 65 48 6.0 14.0 0.00 0.00 0.00 70 1009.5
20260506154206 65 299 6.0 14.0 0.00 0.00 0.00 69 1009.4
20260506154106 65 70 5.0 14.0 0.00 0.00 0.00 70 1009.5
20260506154008 65 120 5.0 14.0 0.00 0.00 0.00 70 1009.4
20260506153805 65 138 5.0 14.0 0.00 0.00 0.00 69 1009.5
20260506153706 65 125 4.0 14.0 0.00 0.00 0.00 69 1009.5
20260506153615 65 116 3.0 14.0 0.00 0.00 0.00 70 1009.5
20260506153508 65 75 3.0 12.0 0.00 0.00 0.00 70 1009.5
20260506153406 65 90 4.0 12.0 0.00 0.00 0.00 70 1009.5
20260506153306 65 118 4.0 12.0 0.00 0.00 0.00 69 1009.4
20260506152906 65 295 5.0 15.0 0.00 0.00 0.00 70 1009.4
20260506152705 65 261 6.0 15.0 0.00 0.00 0.00 70 1009.4
20260506152607 65 182 6.0 15.0 0.00 0.00 0.00 70 1009.4
20260506152508 65 248 6.0 15.0 0.00 0.00 0.00 69 1009.4
20260506152406 65 96 6.0 15.0 0.00 0.00 0.00 69 1009.4
20260506152306 65 113 5.0 15.0 0.00 0.00 0.00 69 1009.4
20260506152206 65 104 5.0 15.0 0.00 0.00 0.00 69 1009.3
20260506152106 65 146 5.0 15.0 0.00 0.00 0.00 69 1009.4
20260506151807 65 146 6.0 13.0 0.00 0.00 0.00 69 1009.3
20260506151707 65 55 5.0 13.0 0.00 0.00 0.00 69 1009.3
20260506151606 65 119 5.0 13.0 0.00 0.00 0.00 69 1009.3
20260506151306 65 77 5.0 13.0 0.00 0.00 0.00 70 1009.4
20260506151106 65 95 5.0 13.0 0.00 0.00 0.00 69 1009.4
20260506151009 65 107 5.0 13.0 0.00 0.00 0.00 69 1009.4
20260506150905 65 84 5.0 13.0 0.00 0.00 0.00 69 1009.5
20260506150805 65 65 5.0 13.0 0.00 0.00 0.00 69 1009.5
20260506150706 65 167 6.0 13.0 0.00 0.00 0.00 70 1009.4
20260506150607 65 88 6.0 13.0 0.00 0.00 0.00 70 1009.5
20260506150508 65 49 6.0 13.0 0.00 0.00 0.00 71 1009.4
20260506150406 65 6 7.0 13.0 0.00 0.00 0.00 71 1009.4
20260506150307 65 101 7.0 13.0 0.00 0.00 0.00 72 1009.4
20260506150205 65 127 7.0 13.0 0.00 0.00 0.00 72 1009.4
20260506150108 65 111 7.0 13.0 0.00 0.00 0.00 72 1009.4
20260506150008 65 89 7.0 14.0 0.00 0.00 0.00 72 1009.4
20260506145907 65 109 7.0 14.0 0.00 0.00 0.00 71 1009.4
20260506145806 65 111 6.0 14.0 0.00 0.00 0.00 71 1009.4
20260506145705 65 29 6.0 14.0 0.00 0.00 0.00 71 1009.4
20260506145607 65 141 6.0 14.0 0.00 0.00 0.00 70 1009.4
20260506145507 65 27 7.0 14.0 0.00 0.00 0.00 70 1009.4
20260506145408 65 139 7.0 15.0 0.00 0.00 0.00 70 1009.4
20260506145319 65 109 7.0 14.0 0.00 0.00 0.00 70 1009.4
20260506145205 65 145 7.0 14.0 0.00 0.00 0.00 70 1009.4
20260506145119 65 95 7.0 15.0 0.00 0.00 0.00 69 1009.4
20260506145030 65 135 7.0 16.0 0.00 0.00 0.00 69 1009.4
20260506144917 65 126 7.0 16.0 0.00 0.00 0.00 70 1009.5
20260506144707 64 179 8.0 16.0 0.00 0.00 0.00 70 1009.5
20260506144607 64 212 8.0 16.0 0.00 0.00 0.00 70 1009.5
20260506144407 64 90 8.0 16.0 0.00 0.00 0.00 70 1009.5
20260506144307 64 168 8.0 16.0 0.00 0.00 0.00 70 1009.6
20260506144007 65 167 7.0 15.0 0.00 0.00 0.00 70 1009.6
20260506143907 65 60 7.0 15.0 0.00 0.00 0.00 70 1009.6
20260506143806 65 100 7.0 15.0 0.00 0.00 0.00 70 1009.6
20260506143706 65 158 7.0 15.0 0.00 0.00 0.00 71 1009.6
20260506143606 65 91 7.0 15.0 0.00 0.00 0.00 72 1009.6
20260506143508 65 154 8.0 16.0 0.00 0.00 0.00 72 1009.6
20260506143307 65 140 7.0 16.0 0.00 0.00 0.00 71 1009.7
20260506143207 65 99 8.0 16.0 0.00 0.00 0.00 72 1009.7
20260506143105 65 54 8.0 16.0 0.00 0.00 0.00 71 1009.7
20260506143009 65 91 8.0 16.0 0.00 0.00 0.00 71 1009.7
20260506142905 65 142 8.0 16.0 0.00 0.00 0.00 71 1009.7
20260506142805 65 145 8.0 16.0 0.00 0.00 0.00 71 1009.7
20260506142607 65 77 8.0 16.0 0.00 0.00 0.00 71 1009.8
20260506142508 65 133 8.0 16.0 0.00 0.00 0.00 71 1009.9
20260506142406 65 76 7.0 16.0 0.00 0.00 0.00 70 1009.8
20260506142306 65 85 7.0 16.0 0.00 0.00 0.00 70 1009.9
20260506142206 65 139 7.0 16.0 0.00 0.00 0.00 70 1009.8
20260506142007 65 105 7.0 16.0 0.00 0.00 0.00 70 1009.9
20260506141907 65 116 7.0 16.0 0.00 0.00 0.00 70 1009.9
20260506141706 65 113 6.0 16.0 0.00 0.00 0.00 70 1010.0
20260506141507 65 335 6.0 16.0 0.00 0.00 0.00 70 1010.0
20260506141405 65 68 6.0 16.0 0.00 0.00 0.00 69 1010.0
20260506141306 65 98 6.0 16.0 0.00 0.00 0.00 69 1009.9
20260506141009 65 102 5.0 14.0 0.00 0.00 0.00 70 1009.9
20260506140908 65 96 6.0 14.0 0.00 0.00 0.00 70 1009.9
20260506140806 65 82 6.0 14.0 0.00 0.00 0.00 70 1009.9
20260506140706 65 75 6.0 14.0 0.00 0.00 0.00 70 1009.9
20260506140606 65 99 6.0 14.0 0.00 0.00 0.00 69 1009.9
20260506140406 65 111 6.0 13.0 0.00 0.00 0.00 70 1009.9
20260506140306 65 145 6.0 12.0 0.00 0.00 0.00 70 1009.9
20260506140205 65 118 6.0 12.0 0.00 0.00 0.00 70 1009.9
20260506140108 65 80 6.0 12.0 0.00 0.00 0.00 70 1009.9
20260506140009 65 112 6.0 12.0 0.00 0.00 0.00 70 1009.9
20260506135907 65 88 7.0 12.0 0.00 0.00 0.00 70 1009.9
20260506135807 65 122 6.0 12.0 0.00 0.00 0.00 69 1009.9
20260506135606 65 116 6.0 16.0 0.00 0.00 0.00 69 1009.9
20260506135507 65 121 6.0 16.0 0.00 0.00 0.00 69 1009.9
20260506135306 66 68 5.0 16.0 0.00 0.00 0.00 69 1010.0
20260506135205 66 86 6.0 16.0 0.00 0.00 0.00 69 1009.9
20260506135105 66 70 5.0 16.0 0.00 0.00 0.00 69 1009.9
20260506135008 66 56 5.0 16.0 0.00 0.00 0.00 69 1009.9
20260506134906 66 90 5.0 16.0 0.00 0.00 0.00 68 1010.0
20260506134705 66 62 5.0 11.0 0.00 0.00 0.00 69 1009.9
20260506134606 66 214 5.0 10.0 0.00 0.00 0.00 68 1009.9
20260506134508 66 137 5.0 15.0 0.00 0.00 0.00 68 1010.0
20260506134306 66 96 5.0 15.0 0.00 0.00 0.00 67 1010.0
20260506134206 66 51 4.0 15.0 0.00 0.00 0.00 66 1009.9
20260506134009 66 113 5.0 15.0 0.00 0.00 0.00 66 1010.0
20260506133906 66 128 5.0 15.0 0.00 0.00 0.00 66 1009.9
20260506133807 66 145 4.0 15.0 0.00 0.00 0.00 66 1010.0
20260506133706 66 91 4.0 15.0 0.00 0.00 0.00 66 1010.0
20260506133606 66 121 4.0 11.0 0.00 0.00 0.00 66 1009.9
20260506133507 66 89 4.0 13.0 0.00 0.00 0.00 67 1009.9
20260506133405 66 81 4.0 13.0 0.00 0.00 0.00 66 1010.0
20260506133305 66 96 4.0 13.0 0.00 0.00 0.00 67 1010.0
20260506133205 66 113 4.0 13.0 0.00 0.00 0.00 67 1010.0
20260506133106 66 73 3.0 13.0 0.00 0.00 0.00 67 1010.0
20260506133009 66 68 4.0 13.0 0.00 0.00 0.00 67 1009.9
20260506132906 66 33 4.0 13.0 0.00 0.00 0.00 67 1009.9
20260506132805 66 232 4.0 13.0 0.00 0.00 0.00 67 1009.9
20260506132705 66 123 4.0 13.0 0.00 0.00 0.00 67 1010.0
20260506132606 66 201 4.0 11.0 0.00 0.00 0.00 67 1010.0
20260506132508 66 3 4.0 11.0 0.00 0.00 0.00 67 1009.9
20260506132407 66 108 3.0 12.0 0.00 0.00 0.00 68 1010.0
20260506132308 66 349 4.0 10.0 0.00 0.00 0.00 67 1009.9
20260506132208 66 60 4.0 10.0 0.00 0.00 0.00 68 1009.9
20260506132106 66 352 4.0 10.0 0.00 0.00 0.00 68 1009.9
20260506132008 66 114 4.0 10.0 0.00 0.00 0.00 68 1009.9
20260506131806 66 63 4.0 13.0 0.00 0.00 0.00 68 1009.9
20260506131705 66 139 4.0 13.0 0.00 0.00 0.00 68 1009.9
20260506131606 66 197 4.0 13.0 0.00 0.00 0.00 69 1010.0
20260506131406 66 197 5.0 13.0 0.00 0.00 0.00 70 1009.9
20260506131306 66 9 5.0 13.0 0.00 0.00 0.00 70 1010.0
20260506131008 66 108 5.0 13.0 0.00 0.00 0.00 69 1010.0
20260506130906 66 56 5.0 13.0 0.00 0.00 0.00 70 1010.1
20260506130806 66 96 5.0 13.0 0.00 0.00 0.00 69 1010.1
20260506130607 66 106 5.0 13.0 0.00 0.00 0.00 68 1010.1
20260506130508 67 62 4.0 13.0 0.00 0.00 0.00 69 1010.2
20260506130405 67 33 4.0 10.0 0.00 0.00 0.00 68 1010.1
20260506130305 67 35 4.0 10.0 0.00 0.00 0.00 68 1010.1
20260506130205 67 102 4.0 12.0 0.00 0.00 0.00 68 1010.1
20260506130106 67 19 4.0 12.0 0.00 0.00 0.00 68 1010.2
20260506130010 67 281 4.0 12.0 0.00 0.00 0.00 68 1010.2
20260506125907 67 203 4.0 12.0 0.00 0.00 0.00 68 1010.2
20260506125806 67 312 4.0 12.0 0.00 0.00 0.00 68 1010.2
20260506125606 67 77 4.0 12.0 0.00 0.00 0.00 67 1010.3
20260506125509 67 293 4.0 12.0 0.00 0.00 0.00 66 1010.3
20260506125407 67 161 4.0 12.0 0.00 0.00 0.00 66 1010.3
20260506125306 67 39 3.0 12.0 0.00 0.00 0.00 66 1010.3
20260506125206 67 330 3.0 12.0 0.00 0.00 0.00 66 1010.3
20260506124907 67 107 3.0 10.0 0.00 0.00 0.00 67 1010.4
20260506124806 67 66 3.0 10.0 0.00 0.00 0.00 67 1010.3
20260506124706 67 187 3.0 12.0 0.00 0.00 0.00 67 1010.3
20260506124607 67 64 3.0 10.0 0.00 0.00 0.00 67 1010.3
20260506124509 67 100 3.0 10.0 0.00 0.00 0.00 67 1010.3
20260506124407 67 29 3.0 10.0 0.00 0.00 0.00 67 1010.3
20260506124306 67 58 4.0 13.0 0.00 0.00 0.00 66 1010.3
20260506124205 67 67 4.0 13.0 0.00 0.00 0.00 67 1010.4
20260506124105 67 37 3.0 13.0 0.00 0.00 0.00 67 1010.4
20260506124008 67 358 4.0 13.0 0.00 0.00 0.00 67 1010.4
20260506123807 66 69 4.0 13.0 0.00 0.00 0.00 67 1010.3
20260506123707 66 91 4.0 14.0 0.00 0.00 0.00 67 1010.3
20260506123607 66 54 4.0 14.0 0.00 0.00 0.00 67 1010.3
20260506123508 66 98 4.0 14.0 0.00 0.00 0.00 67 1010.3
20260506123406 66 150 4.0 14.0 0.00 0.00 0.00 67 1010.3
20260506123305 66 40 4.0 14.0 0.00 0.00 0.00 67 1010.4
20260506123106 66 58 4.0 14.0 0.00 0.00 0.00 67 1010.4
20260506123009 66 122 4.0 14.0 0.00 0.00 0.00 67 1010.4
20260506122905 66 96 4.0 14.0 0.00 0.00 0.00 66 1010.4
20260506122805 66 105 4.0 14.0 0.00 0.00 0.00 66 1010.4
20260506122708 66 98 4.0 12.0 0.00 0.00 0.00 66 1010.4
20260506122607 66 60 4.0 12.0 0.00 0.00 0.00 66 1010.4
20260506122508 66 5 4.0 12.0 0.00 0.00 0.00 65 1010.4
20260506122406 67 110 4.0 12.0 0.00 0.00 0.00 66 1010.4
20260506122307 66 87 4.0 11.0 0.00 0.00 0.00 66 1010.4
20260506122106 66 101 4.0 11.0 0.00 0.00 0.00 65 1010.4
20260506122009 66 40 5.0 10.0 0.00 0.00 0.00 66 1010.4
20260506121806 66 16 6.0 13.0 0.00 0.00 0.00 66 1010.5
20260506121705 66 216 6.0 13.0 0.00 0.00 0.00 67 1010.5
20260506121605 66 4 6.0 15.0 0.00 0.00 0.00 67 1010.4
20260506121302 66 6 7.0 15.0 0.00 0.00 0.00 67 1010.5
20260506121203 66 69 8.0 15.0 0.00 0.00 0.00 67 1010.5
20260506121004 66 71 7.0 15.0 0.00 0.00 0.00 67 1010.5
20260506120903 66 87 7.0 15.0 0.00 0.00 0.00 67 1010.5
20260506120802 66 110 7.0 15.0 0.00 0.00 0.00 67 1010.6
20260506120601 66 94 6.0 15.0 0.00 0.00 0.00 66 1010.5
20260506120518 66 110 6.0 15.0 0.00 0.00 0.00 66 1010.6
20260506120416 66 78 6.0 15.0 0.00 0.00 0.00 64 1010.6
20260506120317 66 110 5.0 15.0 0.00 0.00 0.00 63 1010.5
20260506120217 67 120 4.0 15.0 0.00 0.00 0.00 63 1010.6
20260506120106 67 112 4.0 15.0 0.00 0.00 0.00 63 1010.6
20260506115807 67 139 3.0 9.0 0.00 0.00 0.00 62 1010.6
20260506115606 67 291 3.0 9.0 0.00 0.00 0.00 62 1010.5
20260506115509 67 85 3.0 9.0 0.00 0.00 0.00 62 1010.6
20260506115406 67 142 4.0 9.0 0.00 0.00 0.00 63 1010.7
20260506115307 67 156 3.0 11.0 0.00 0.00 0.00 63 1010.6
20260506115205 67 71 3.0 11.0 0.00 0.00 0.00 63 1010.7
20260506115105 66 55 3.0 11.0 0.00 0.00 0.00 63 1010.6
20260506115009 67 49 3.0 11.0 0.00 0.00 0.00 63 1010.6
20260506114806 66 123 3.0 11.0 0.00 0.00 0.00 65 1010.6
20260506114608 66 175 4.0 11.0 0.00 0.00 0.00 65 1010.7
20260506114508 66 119 4.0 11.0 0.00 0.00 0.00 66 1010.6
20260506114307 66 87 4.0 13.0 0.00 0.00 0.00 67 1010.6
20260506114206 66 54 4.0 13.0 0.00 0.00 0.00 67 1010.7
20260506114107 66 342 5.0 13.0 0.00 0.00 0.00 68 1010.7